Time,TemperatureF,DewpointF,PressureIn,WindDirection,WindDirectionDegrees,WindSpeedMPH,WindSpeedGustMPH,Humidity,HourlyPrecipIn,Conditions,Clouds,dailyrainin,SoftwareType,DateUTC
2013-03-12 00:00:00,51.0,49.0,30.08,NNE,27,4.0,5.0,93,0.00,,---,0.00,VWS V13.01,2013-03-12 04:00:00,
2013-03-12 00:01:00,51.0,49.0,30.07,NW,310,2.0,4.0,93,0.00,,---,0.00,VWS V13.01,2013-03-12 04:01:00,
2013-03-12 00:02:00,51.1,49.2,30.07,West,273,2.0,5.0,93,0.00,,---,0.00,VWS V13.01,2013-03-12 04:02:00,
2013-03-12 00:03:00,51.1,49.2,30.07,NW,313,0.0,2.0,93,0.00,,---,0.00,VWS V13.01,2013-03-12 04:03:00,
2013-03-12 00:04:00,51.1,49.2,30.07,NNW,328,0.0,4.0,93,0.00,,---,0.00,VWS V13.01,2013-03-12 04:04:00,
2013-03-12 00:05:00,51.1,49.2,30.07,NNW,328,0.0,0.0,93,0.00,,---,0.00,VWS V13.01,2013-03-12 04:05:00,
2013-03-12 00:06:00,51.1,49.2,30.07,NNW,339,2.0,5.0,93,0.00,,---,0.00,VWS V13.01,2013-03-12 04:06:00,
2013-03-12 00:07:00,51.2,49.2,30.07,NNE,25,2.0,4.0,93,0.00,,---,0.00,VWS V13.01,2013-03-12 04:07:00,
2013-03-12 00:08:00,51.2,49.2,30.07,NW,314,1.0,3.0,93,0.00,,---,0.00,VWS V13.01,2013-03-12 04:08:00,
2013-03-12 00:09:00,51.2,49.2,30.07,WNW,293,2.0,3.0,93,0.00,,---,0.00,VWS V13.01,2013-03-12 04:09:00,
2013-03-12 00:10:00,51.2,49.2,30.07,WNW,293,2.0,3.0,93,0.00,,---,0.00,VWS V13.01,2013-03-12 04:10:00,
2013-03-12 00:11:00,51.2,49.0,30.07,NNW,339,2.0,3.0,92,0.00,,---,0.00,VWS V13.01,2013-03-12 04:11:00,
2013-03-12 00:12:00,51.2,49.0,30.07,NE,38,5.0,5.0,92,0.00,,---,0.00,VWS V13.01,2013-03-12 04:12:00,
2013-03-12 00:13:00,51.2,49.0,30.07,WNW,301,2.0,9.0,92,0.00,,---,0.00,VWS V13.01,2013-03-12 04:13:00,
2013-03-12 00:14:00,51.2,49.0,30.07,NW,312,3.0,3.0,92,0.00,,---,0.00,VWS V13.01,2013-03-12 04:14:00,
2013-03-12 00:15:00,51.2,49.0,30.07,NW,312,3.0,3.0,92,0.00,,---,0.00,VWS V13.01,2013-03-12 04:15:00,
2013-03-12 00:16:00,51.2,49.0,30.07,West,271,2.0,3.0,92,0.00,,---,0.00,VWS V13.01,2013-03-12 04:16:00,
2013-03-12 00:17:00,51.2,49.0,30.07,North,2,3.0,6.0,92,0.00,,---,0.00,VWS V13.01,2013-03-12 04:17:00,
2013-03-12 00:18:00,51.2,49.0,30.07,North,1,2.0,5.0,92,0.00,,---,0.00,VWS V13.01,2013-03-12 04:18:00,
2013-03-12 00:19:00,51.2,49.0,30.07,NE,46,2.0,8.0,92,0.00,,---,0.00,VWS V13.01,2013-03-12 04:19:00,
2013-03-12 00:20:00,51.2,49.0,30.07,NE,46,2.0,2.0,92,0.00,,---,0.00,VWS V13.01,2013-03-12 04:20:00,
2013-03-12 00:21:00,51.2,49.0,30.07,North,6,5.0,5.0,92,0.00,,---,0.00,VWS V13.01,2013-03-12 04:21:00,
2013-03-12 00:22:00,51.2,49.0,30.07,NW,325,0.0,6.0,92,0.00,,---,0.00,VWS V13.01,2013-03-12 04:22:00,
2013-03-12 00:23:00,51.1,48.9,30.07,WNW,299,1.0,4.0,92,0.00,,---,0.00,VWS V13.01,2013-03-12 04:23:00,
2013-03-12 00:24:00,51.1,48.9,30.07,North,351,3.0,3.0,92,0.00,,---,0.00,VWS V13.01,2013-03-12 04:24:00,
2013-03-12 00:25:00,51.1,48.9,30.07,North,351,3.0,3.0,92,0.00,,---,0.00,VWS V13.01,2013-03-12 04:25:00,
2013-03-12 00:26:00,51.1,48.9,30.07,North,2,2.0,6.0,92,0.00,,---,0.00,VWS V13.01,2013-03-12 04:26:00,
2013-03-12 00:27:00,51.1,48.9,30.07,ENE,66,2.0,2.0,92,0.00,,---,0.00,VWS V13.01,2013-03-12 04:27:00,
2013-03-12 00:28:00,51.1,48.9,30.07,NW,306,1.0,4.0,92,0.00,,---,0.00,VWS V13.01,2013-03-12 04:28:00,
2013-03-12 00:29:00,51.1,48.9,30.06,NW,324,2.0,2.0,92,0.00,,---,0.00,VWS V13.01,2013-03-12 04:29:00,
2013-03-12 00:30:00,51.1,48.9,30.06,NW,324,2.0,2.0,92,0.00,,---,0.00,VWS V13.01,2013-03-12 04:30:00,
2013-03-12 00:31:00,51.0,48.8,30.06,North,351,3.0,3.0,92,0.00,,---,0.00,VWS V13.01,2013-03-12 04:31:00,
2013-03-12 00:32:00,51.0,48.8,30.06,North,11,0.0,4.0,92,0.00,,---,0.00,VWS V13.01,2013-03-12 04:32:00,
2013-03-12 00:33:00,51.0,48.8,30.06,SW,226,2.0,5.0,92,0.00,,---,0.00,VWS V13.01,2013-03-12 04:33:00,
2013-03-12 00:34:00,51.0,48.8,30.06,NNW,343,2.0,5.0,92,0.00,,---,0.00,VWS V13.01,2013-03-12 04:34:00,
2013-03-12 00:35:00,51.0,48.8,30.06,NNW,343,2.0,5.0,92,0.00,,---,0.00,VWS V13.01,2013-03-12 04:35:00,
2013-03-12 00:36:00,51.0,48.8,30.06,NW,324,0.0,3.0,92,0.00,,---,0.00,VWS V13.01,2013-03-12 04:36:00,
2013-03-12 00:37:00,51.0,48.8,30.06,NE,43,2.0,2.0,92,0.00,,---,0.00,VWS V13.01,2013-03-12 04:37:00,
2013-03-12 00:38:00,51.0,48.8,30.06,North,353,4.0,4.0,92,0.00,,---,0.00,VWS V13.01,2013-03-12 04:38:00,
2013-03-12 00:39:00,51.0,48.8,30.06,North,2,1.0,5.0,92,0.00,,---,0.00,VWS V13.01,2013-03-12 04:39:00,
2013-03-12 00:40:00,51.0,48.8,30.06,North,2,1.0,5.0,92,0.00,,---,0.00,VWS V13.01,2013-03-12 04:40:00,
2013-03-12 00:41:00,50.9,48.7,30.06,SE,134,5.0,5.0,92,0.00,,---,0.00,VWS V13.01,2013-03-12 04:41:00,
2013-03-12 00:42:00,50.9,48.7,30.06,NW,320,1.0,5.0,92,0.00,,---,0.00,VWS V13.01,2013-03-12 04:42:00,
2013-03-12 00:43:00,50.9,48.7,30.06,NW,316,0.0,2.0,92,0.00,,---,0.00,VWS V13.01,2013-03-12 04:43:00,
2013-03-12 00:44:00,50.9,48.7,30.06,NNW,328,3.0,6.0,92,0.00,,---,0.00,VWS V13.01,2013-03-12 04:44:00,
2013-03-12 00:45:00,50.9,48.7,30.06,NNW,328,3.0,6.0,92,0.00,,---,0.00,VWS V13.01,2013-03-12 04:45:00,
2013-03-12 00:46:00,50.9,48.7,30.06,NW,305,2.0,3.0,92,0.00,,---,0.00,VWS V13.01,2013-03-12 04:46:00,
2013-03-12 00:47:00,50.8,48.6,30.05,North,6,2.0,2.0,92,0.00,,---,0.00,VWS V13.01,2013-03-12 04:47:00,
2013-03-12 00:48:00,50.8,48.6,30.05,West,266,4.0,4.0,92,0.00,,---,0.00,VWS V13.01,2013-03-12 04:48:00,
2013-03-12 00:49:00,50.8,48.6,30.05,NNW,328,0.0,5.0,92,0.00,,---,0.00,VWS V13.01,2013-03-12 04:49:00,
2013-03-12 00:50:00,50.8,48.6,30.05,NNW,328,0.0,5.0,92,0.00,,---,0.00,VWS V13.01,2013-03-12 04:50:00,
2013-03-12 00:51:00,50.8,48.6,30.05,NW,305,3.0,7.0,92,0.00,,---,0.00,VWS V13.01,2013-03-12 04:51:00,
2013-03-12 00:52:00,50.8,48.6,30.05,NNW,339,0.0,3.0,92,0.00,,---,0.00,VWS V13.01,2013-03-12 04:52:00,
2013-03-12 00:53:00,50.8,48.6,30.05,WNW,285,2.0,3.0,92,0.00,,---,0.00,VWS V13.01,2013-03-12 04:53:00,
2013-03-12 00:54:00,50.7,48.5,30.05,West,278,2.0,3.0,92,0.00,,---,0.00,VWS V13.01,2013-03-12 04:54:00,
2013-03-12 00:55:00,50.7,48.5,30.05,West,278,2.0,3.0,92,0.00,,---,0.00,VWS V13.01,2013-03-12 04:55:00,
2013-03-12 00:56:00,50.7,48.5,30.04,NNW,330,3.0,3.0,92,0.00,,---,0.00,VWS V13.01,2013-03-12 04:56:00,
2013-03-12 00:57:00,50.7,48.5,30.04,NW,325,1.0,3.0,92,0.00,,---,0.00,VWS V13.01,2013-03-12 04:57:00,
2013-03-12 00:58:00,50.7,48.5,30.04,NW,322,4.0,5.0,92,0.00,,---,0.00,VWS V13.01,2013-03-12 04:58:00,
2013-03-12 00:59:00,50.7,48.5,30.04,NW,317,2.0,5.0,92,0.00,,---,0.00,VWS V13.01,2013-03-12 04:59:00,
2013-03-12 01:00:00,50.7,48.5,30.04,NW,317,2.0,5.0,92,0.00,,---,0.00,VWS V13.01,2013-03-12 05:00:00,
2013-03-12 01:01:00,50.6,48.4,30.04,NNE,30,1.0,3.0,92,0.00,,---,0.00,VWS V13.01,2013-03-12 05:01:00,
2013-03-12 01:02:00,50.6,48.4,30.04,WNW,288,2.0,7.0,92,0.00,,---,0.00,VWS V13.01,2013-03-12 05:02:00,
2013-03-12 01:03:00,50.6,48.4,30.04,SE,129,1.0,2.0,92,0.00,,---,0.00,VWS V13.01,2013-03-12 05:03:00,
2013-03-12 01:04:00,50.6,48.4,30.04,NE,47,0.0,1.0,92,0.00,,---,0.00,VWS V13.01,2013-03-12 05:04:00,
2013-03-12 01:05:00,50.6,48.4,30.04,NE,47,0.0,1.0,92,0.00,,---,0.00,VWS V13.01,2013-03-12 05:05:00,
2013-03-12 01:06:00,50.6,48.4,30.03,NW,314,1.0,5.0,92,0.00,,---,0.00,VWS V13.01,2013-03-12 05:06:00,
2013-03-12 01:07:00,50.6,48.4,30.04,NNW,343,3.0,5.0,92,0.00,,---,0.00,VWS V13.01,2013-03-12 05:07:00,
2013-03-12 01:08:00,50.6,48.4,30.04,NW,316,1.0,4.0,92,0.00,,---,0.00,VWS V13.01,2013-03-12 05:08:00,
2013-03-12 01:09:00,50.6,48.4,30.04,NW,312,3.0,8.0,92,0.00,,---,0.00,VWS V13.01,2013-03-12 05:09:00,
2013-03-12 01:10:00,50.6,48.4,30.04,NW,312,3.0,8.0,92,0.00,,---,0.00,VWS V13.01,2013-03-12 05:10:00,
2013-03-12 01:11:00,50.6,48.4,30.03,SW,230,1.0,4.0,92,0.00,,---,0.00,VWS V13.01,2013-03-12 05:11:00,
2013-03-12 01:12:00,50.6,48.4,30.03,East,79,4.0,7.0,92,0.00,,---,0.00,VWS V13.01,2013-03-12 05:12:00,
2013-03-12 01:13:00,50.6,48.4,30.03,NNE,22,3.0,10.0,92,0.00,,---,0.00,VWS V13.01,2013-03-12 05:13:00,
2013-03-12 01:14:00,50.6,48.4,30.03,NNW,343,2.0,6.0,92,0.00,,---,0.00,VWS V13.01,2013-03-12 05:14:00,
2013-03-12 01:15:00,50.6,48.4,30.03,NNW,343,2.0,6.0,92,0.00,,---,0.00,VWS V13.01,2013-03-12 05:15:00,
2013-03-12 01:16:00,50.6,48.4,30.03,WNW,294,2.0,3.0,92,0.00,,---,0.00,VWS V13.01,2013-03-12 05:16:00,
2013-03-12 01:17:00,50.6,48.4,30.03,North,10,5.0,7.0,92,0.00,,---,0.00,VWS V13.01,2013-03-12 05:17:00,
2013-03-12 01:18:00,50.6,48.4,30.03,NNW,344,3.0,5.0,92,0.00,,---,0.00,VWS V13.01,2013-03-12 05:18:00,
2013-03-12 01:19:00,50.5,48.3,30.03,West,276,3.0,5.0,92,0.00,,---,0.00,VWS V13.01,2013-03-12 05:19:00,
2013-03-12 01:20:00,50.5,48.3,30.03,WNW,287,5.0,5.0,92,0.00,,---,0.00,VWS V13.01,2013-03-12 05:20:00,
2013-03-12 01:21:00,50.5,48.3,30.03,North,351,3.0,5.0,92,0.00,,---,0.00,VWS V13.01,2013-03-12 05:21:00,
2013-03-12 01:22:00,50.5,48.3,30.03,West,267,2.0,3.0,92,0.00,,---,0.00,VWS V13.01,2013-03-12 05:22:00,
2013-03-12 01:23:00,50.5,48.3,30.03,North,11,2.0,5.0,92,0.00,,---,0.00,VWS V13.01,2013-03-12 05:23:00,
2013-03-12 01:24:00,50.5,48.3,30.03,NNW,342,2.0,6.0,92,0.00,,---,0.00,VWS V13.01,2013-03-12 05:24:00,
2013-03-12 01:25:00,50.5,48.3,30.03,NNW,342,2.0,6.0,92,0.00,,---,0.00,VWS V13.01,2013-03-12 05:25:00,
2013-03-12 01:26:00,50.5,48.3,30.03,WNW,301,3.0,5.0,92,0.00,,---,0.00,VWS V13.01,2013-03-12 05:26:00,
2013-03-12 01:27:00,50.5,48.3,30.03,North,353,7.0,7.0,92,0.00,,---,0.00,VWS V13.01,2013-03-12 05:27:00,
2013-03-12 01:28:00,50.5,48.3,30.03,SE,143,1.0,7.0,92,0.00,,---,0.00,VWS V13.01,2013-03-12 05:28:00,
2013-03-12 01:29:00,50.5,48.3,30.03,NW,326,5.0,7.0,92,0.00,,---,0.00,VWS V13.01,2013-03-12 05:29:00,
2013-03-12 01:30:00,50.5,48.3,30.03,NW,304,7.0,7.0,92,0.00,,---,0.00,VWS V13.01,2013-03-12 05:30:00,
2013-03-12 01:31:00,50.5,48.3,30.02,West,267,3.0,4.0,92,0.00,,---,0.00,VWS V13.01,2013-03-12 05:31:00,
2013-03-12 01:32:00,50.5,48.3,30.02,NNW,343,3.0,4.0,92,0.00,,---,0.00,VWS V13.01,2013-03-12 05:32:00,
2013-03-12 01:33:00,50.5,48.3,30.02,WSW,250,1.0,5.0,92,0.00,,---,0.00,VWS V13.01,2013-03-12 05:33:00,
2013-03-12 01:34:00,50.5,48.3,30.03,NW,318,0.0,7.0,92,0.00,,---,0.00,VWS V13.01,2013-03-12 05:34:00,
2013-03-12 01:35:00,50.5,48.3,30.03,NW,318,0.0,7.0,92,0.00,,---,0.00,VWS V13.01,2013-03-12 05:35:00,
2013-03-12 01:36:00,50.5,48.3,30.02,NE,42,1.0,6.0,92,0.00,,---,0.00,VWS V13.01,2013-03-12 05:36:00,
2013-03-12 01:37:00,50.5,48.3,30.02,North,360,4.0,6.0,92,0.00,,---,0.00,VWS V13.01,2013-03-12 05:37:00,
2013-03-12 01:38:00,50.5,48.3,30.02,WNW,300,3.0,6.0,92,0.00,,---,0.00,VWS V13.01,2013-03-12 05:38:00,
2013-03-12 01:39:00,50.5,48.3,30.02,North,349,6.0,6.0,92,0.00,,---,0.00,VWS V13.01,2013-03-12 05:39:00,
2013-03-12 01:40:00,50.5,48.3,30.02,North,349,6.0,6.0,92,0.00,,---,0.00,VWS V13.01,2013-03-12 05:40:00,
2013-03-12 01:41:00,50.5,48.3,30.02,NW,307,4.0,5.0,92,0.00,,---,0.00,VWS V13.01,2013-03-12 05:41:00,
2013-03-12 01:42:00,50.5,48.3,30.02,WNW,291,2.0,5.0,92,0.00,,---,0.00,VWS V13.01,2013-03-12 05:42:00,
2013-03-12 01:43:00,50.5,48.3,30.02,North,3,4.0,5.0,92,0.00,,---,0.00,VWS V13.01,2013-03-12 05:43:00,
2013-03-12 01:44:00,50.5,48.3,30.02,North,4,4.0,6.0,92,0.00,,---,0.00,VWS V13.01,2013-03-12 05:44:00,
2013-03-12 01:45:00,50.5,48.3,30.02,North,4,4.0,6.0,92,0.00,,---,0.00,VWS V13.01,2013-03-12 05:45:00,
2013-03-12 01:46:00,50.5,48.3,30.02,NNW,328,9.0,9.0,92,0.00,,---,0.00,VWS V13.01,2013-03-12 05:46:00,
2013-03-12 01:47:00,50.5,48.3,30.02,North,358,2.0,9.0,92,0.00,,---,0.00,VWS V13.01,2013-03-12 05:47:00,
2013-03-12 01:48:00,50.5,48.3,30.02,NNW,328,3.0,9.0,92,0.00,,---,0.00,VWS V13.01,2013-03-12 05:48:00,
2013-03-12 01:49:00,50.5,48.3,30.02,NNW,329,3.0,5.0,92,0.00,,---,0.00,VWS V13.01,2013-03-12 05:49:00,
2013-03-12 01:50:00,50.5,48.3,30.02,WSW,254,2.0,5.0,92,0.00,,---,0.00,VWS V13.01,2013-03-12 05:50:00,
2013-03-12 01:51:00,50.5,48.3,30.02,NW,326,2.0,6.0,92,0.00,,---,0.00,VWS V13.01,2013-03-12 05:51:00,
2013-03-12 01:52:00,50.5,48.3,30.02,NW,316,2.0,5.0,92,0.00,,---,0.00,VWS V13.01,2013-03-12 05:52:00,
2013-03-12 01:53:00,50.5,48.3,30.02,North,4,2.0,2.0,92,0.00,,---,0.00,VWS V13.01,2013-03-12 05:53:00,
2013-03-12 01:54:00,50.5,48.0,30.02,NNW,338,1.0,9.0,91,0.00,,---,0.00,VWS V13.01,2013-03-12 05:54:00,
2013-03-12 01:55:00,50.5,48.0,30.02,NW,326,2.0,9.0,91,0.00,,---,0.00,VWS V13.01,2013-03-12 05:55:00,
2013-03-12 01:56:00,50.5,48.0,30.01,WNW,297,2.0,7.0,91,0.00,,---,0.00,VWS V13.01,2013-03-12 05:56:00,
2013-03-12 01:57:00,50.5,48.0,30.01,NW,308,5.0,6.0,91,0.00,,---,0.00,VWS V13.01,2013-03-12 05:57:00,
2013-03-12 01:58:00,50.5,48.0,30.01,NNW,348,4.0,5.0,91,0.00,,---,0.00,VWS V13.01,2013-03-12 05:58:00,
2013-03-12 01:59:00,50.5,48.0,30.01,WNW,297,3.0,6.0,91,0.00,,---,0.00,VWS V13.01,2013-03-12 05:59:00,
2013-03-12 02:00:00,50.5,48.0,30.01,NW,323,2.0,6.0,91,0.00,,---,0.00,VWS V13.01,2013-03-12 06:00:00,
2013-03-12 02:01:00,50.5,48.0,30.01,North,358,3.0,10.0,91,0.00,,---,0.00,VWS V13.01,2013-03-12 06:01:00,
2013-03-12 02:02:00,50.5,48.0,30.01,NW,316,2.0,4.0,91,0.00,,---,0.00,VWS V13.01,2013-03-12 06:02:00,
2013-03-12 02:03:00,50.5,48.0,30.01,North,2,2.0,4.0,91,0.00,,---,0.00,VWS V13.01,2013-03-12 06:03:00,
2013-03-12 02:04:00,50.5,48.0,30.01,WNW,287,4.0,4.0,91,0.00,,---,0.00,VWS V13.01,2013-03-12 06:04:00,
2013-03-12 02:05:00,50.5,48.0,30.01,WNW,287,4.0,4.0,91,0.00,,---,0.00,VWS V13.01,2013-03-12 06:05:00,
2013-03-12 02:06:00,50.5,48.0,30.01,WSW,254,1.0,10.0,91,0.00,,---,0.00,VWS V13.01,2013-03-12 06:06:00,
2013-03-12 02:07:00,50.5,48.0,30.01,NNW,343,1.0,3.0,91,0.00,,---,0.00,VWS V13.01,2013-03-12 06:07:00,
2013-03-12 02:08:00,50.5,48.0,30.00,WNW,297,3.0,3.0,91,0.00,,---,0.00,VWS V13.01,2013-03-12 06:08:00,
2013-03-12 02:09:00,50.5,48.0,30.00,North,356,3.0,4.0,91,0.00,,---,0.00,VWS V13.01,2013-03-12 06:09:00,
2013-03-12 02:10:00,50.5,48.0,30.00,NW,304,4.0,4.0,91,0.00,,---,0.00,VWS V13.01,2013-03-12 06:10:00,
2013-03-12 02:11:00,50.5,48.0,30.00,North,358,2.0,4.0,91,0.00,,---,0.00,VWS V13.01,2013-03-12 06:11:00,
2013-03-12 02:12:00,50.5,48.0,30.00,WNW,287,3.0,4.0,91,0.00,,---,0.00,VWS V13.01,2013-03-12 06:12:00,
2013-03-12 02:13:00,50.5,48.0,30.00,NW,324,2.0,6.0,91,0.00,,---,0.00,VWS V13.01,2013-03-12 06:13:00,
2013-03-12 02:14:00,50.5,48.0,30.00,NNW,345,3.0,5.0,91,0.00,,---,0.00,VWS V13.01,2013-03-12 06:14:00,
2013-03-12 02:15:00,50.5,48.0,30.00,WNW,294,1.0,5.0,91,0.00,,---,0.00,VWS V13.01,2013-03-12 06:15:00,
2013-03-12 02:16:00,50.5,48.0,30.00,NW,320,3.0,7.0,91,0.00,,---,0.00,VWS V13.01,2013-03-12 06:16:00,
2013-03-12 02:17:00,50.5,48.0,30.00,NE,46,8.0,10.0,91,0.00,,---,0.00,VWS V13.01,2013-03-12 06:17:00,
2013-03-12 02:18:00,50.4,47.9,29.99,NW,320,3.0,8.0,91,0.00,,---,0.00,VWS V13.01,2013-03-12 06:18:00,
2013-03-12 02:19:00,50.4,47.9,29.99,NW,322,2.0,6.0,91,0.00,,---,0.00,VWS V13.01,2013-03-12 06:19:00,
2013-03-12 02:20:00,50.4,47.9,29.99,NW,320,1.0,6.0,91,0.00,,---,0.00,VWS V13.01,2013-03-12 06:20:00,
2013-03-12 02:21:00,50.4,47.9,29.99,NNW,341,3.0,5.0,91,0.00,,---,0.00,VWS V13.01,2013-03-12 06:21:00,
2013-03-12 02:22:00,50.4,47.9,29.99,NW,312,2.0,6.0,91,0.00,,---,0.00,VWS V13.01,2013-03-12 06:22:00,
2013-03-12 02:23:00,50.4,47.9,29.99,NW,322,2.0,5.0,91,0.00,,---,0.00,VWS V13.01,2013-03-12 06:23:00,
2013-03-12 02:24:00,50.4,47.9,29.99,North,349,4.0,6.0,91,0.00,,---,0.00,VWS V13.01,2013-03-12 06:24:00,
2013-03-12 02:25:00,50.4,47.9,29.99,West,269,3.0,6.0,91,0.00,,---,0.00,VWS V13.01,2013-03-12 06:25:00,
2013-03-12 02:26:00,50.4,47.6,29.99,NNE,27,3.0,5.0,90,0.00,,---,0.00,VWS V13.01,2013-03-12 06:26:00,
2013-03-12 02:27:00,50.4,47.9,29.98,NW,304,2.0,5.0,91,0.00,,---,0.00,VWS V13.01,2013-03-12 06:27:00,
2013-03-12 02:28:00,50.3,47.8,29.98,WNW,299,3.0,5.0,91,0.00,,---,0.00,VWS V13.01,2013-03-12 06:28:00,
2013-03-12 02:29:00,50.3,47.8,29.98,North,359,3.0,9.0,91,0.00,,---,0.00,VWS V13.01,2013-03-12 06:29:00,
2013-03-12 02:30:00,50.4,47.9,29.98,NNW,328,2.0,9.0,91,0.00,,---,0.00,VWS V13.01,2013-03-12 06:30:00,
2013-03-12 02:31:00,50.3,47.8,29.98,North,351,1.0,5.0,91,0.00,,---,0.00,VWS V13.01,2013-03-12 06:31:00,
2013-03-12 02:32:00,50.3,47.5,29.98,NNW,337,2.0,11.0,90,0.00,,---,0.00,VWS V13.01,2013-03-12 06:32:00,
2013-03-12 02:33:00,50.3,47.5,29.98,NW,310,7.0,7.0,90,0.00,,---,0.00,VWS V13.01,2013-03-12 06:33:00,
2013-03-12 02:34:00,50.3,47.5,29.98,NNW,335,4.0,7.0,90,0.00,,---,0.00,VWS V13.01,2013-03-12 06:34:00,
2013-03-12 02:35:00,50.3,47.5,29.98,North,351,5.0,7.0,90,0.00,,---,0.00,VWS V13.01,2013-03-12 06:35:00,
2013-03-12 02:36:00,50.2,47.4,29.98,NW,314,3.0,11.0,90,0.00,,---,0.00,VWS V13.01,2013-03-12 06:36:00,
2013-03-12 02:37:00,50.2,47.4,29.98,NNE,15,4.0,6.0,90,0.00,,---,0.00,VWS V13.01,2013-03-12 06:37:00,
2013-03-12 02:38:00,50.2,47.4,29.98,NNE,19,0.0,4.0,90,0.00,,---,0.00,VWS V13.01,2013-03-12 06:38:00,
2013-03-12 02:39:00,50.1,47.3,29.98,WNW,297,6.0,6.0,90,0.00,,---,0.00,VWS V13.01,2013-03-12 06:39:00,
2013-03-12 02:40:00,50.1,47.3,29.98,NW,310,2.0,4.0,90,0.00,,---,0.00,VWS V13.01,2013-03-12 06:40:00,
2013-03-12 02:41:00,50.1,47.3,29.98,SE,131,2.0,5.0,90,0.00,,---,0.00,VWS V13.01,2013-03-12 06:41:00,
2013-03-12 02:42:00,50.0,47.2,29.98,WNW,287,7.0,7.0,90,0.00,,---,0.00,VWS V13.01,2013-03-12 06:42:00,
2013-03-12 02:43:00,50.0,47.2,29.98,NW,305,2.0,7.0,90,0.00,,---,0.00,VWS V13.01,2013-03-12 06:43:00,
2013-03-12 02:44:00,50.0,47.2,29.97,West,278,2.0,3.0,90,0.00,,---,0.00,VWS V13.01,2013-03-12 06:44:00,
2013-03-12 02:45:00,50.0,47.2,29.97,NNW,330,1.0,3.0,90,0.00,,---,0.00,VWS V13.01,2013-03-12 06:45:00,
2013-03-12 02:46:00,49.9,47.1,29.96,NNW,328,6.0,7.0,90,0.00,,---,0.00,VWS V13.01,2013-03-12 06:46:00,
2013-03-12 02:47:00,49.9,47.1,29.95,NNW,328,3.0,10.0,90,0.00,,---,0.00,VWS V13.01,2013-03-12 06:47:00,
2013-03-12 02:48:00,49.9,47.1,29.95,WNW,289,4.0,4.0,90,0.00,,---,0.00,VWS V13.01,2013-03-12 06:48:00,
2013-03-12 02:49:00,49.9,47.1,29.95,NW,326,4.0,7.0,90,0.00,,---,0.00,VWS V13.01,2013-03-12 06:49:00,
2013-03-12 02:50:00,49.9,47.1,29.95,NW,313,3.0,7.0,90,0.00,,---,0.00,VWS V13.01,2013-03-12 06:50:00,
2013-03-12 02:51:00,49.8,47.0,29.94,NW,308,3.0,5.0,90,0.00,,---,0.00,VWS V13.01,2013-03-12 06:51:00,
2013-03-12 02:52:00,49.8,47.0,29.95,NW,312,4.0,4.0,90,0.00,,---,0.00,VWS V13.01,2013-03-12 06:52:00,
2013-03-12 02:53:00,49.7,46.9,29.95,WNW,303,3.0,4.0,90,0.00,,---,0.00,VWS V13.01,2013-03-12 06:53:00,
2013-03-12 02:54:00,49.7,46.9,29.95,NNE,22,1.0,5.0,90,0.00,,---,0.00,VWS V13.01,2013-03-12 06:54:00,
2013-03-12 02:55:00,49.7,46.9,29.95,NNE,22,1.0,5.0,90,0.00,,---,0.00,VWS V13.01,2013-03-12 06:55:00,
2013-03-12 02:56:00,49.7,46.9,29.96,NNW,328,0.0,4.0,90,0.00,,---,0.00,VWS V13.01,2013-03-12 06:56:00,
2013-03-12 02:57:00,49.7,46.9,29.96,NE,56,1.0,4.0,90,0.00,,---,0.00,VWS V13.01,2013-03-12 06:57:00,
2013-03-12 02:58:00,49.7,46.9,29.97,WNW,299,2.0,3.0,90,0.00,,---,0.00,VWS V13.01,2013-03-12 06:58:00,
2013-03-12 02:59:00,49.7,46.9,29.97,WSW,237,2.0,9.0,90,0.00,,---,0.00,VWS V13.01,2013-03-12 06:59:00,
2013-03-12 03:00:00,49.7,46.9,29.97,West,259,4.0,9.0,90,0.00,,---,0.00,VWS V13.01,2013-03-12 07:00:00,
2013-03-12 03:01:00,49.8,47.3,29.98,NNW,339,4.0,7.0,91,0.00,,---,0.00,VWS V13.01,2013-03-12 07:01:00,
2013-03-12 03:02:00,49.9,47.4,29.98,WNW,294,0.0,6.0,91,0.00,,---,0.00,VWS V13.01,2013-03-12 07:02:00,
2013-03-12 03:03:00,50.0,47.5,29.98,WNW,297,4.0,4.0,91,0.00,,---,0.00,VWS V13.01,2013-03-12 07:03:00,
2013-03-12 03:04:00,50.1,47.6,29.99,SE,140,2.0,6.0,91,0.00,,---,0.00,VWS V13.01,2013-03-12 07:04:00,
2013-03-12 03:05:00,50.0,47.5,29.99,NW,320,3.0,6.0,91,0.00,,---,0.00,VWS V13.01,2013-03-12 07:05:00,
2013-03-12 03:06:00,50.2,47.7,29.98,NNE,15,3.0,4.0,91,0.00,,---,0.00,VWS V13.01,2013-03-12 07:06:00,
2013-03-12 03:07:00,50.3,47.5,29.99,North,6,1.0,6.0,90,0.00,,---,0.00,VWS V13.01,2013-03-12 07:07:00,
2013-03-12 03:08:00,50.4,47.9,29.98,NNW,328,3.0,3.0,91,0.00,,---,0.00,VWS V13.01,2013-03-12 07:08:00,
2013-03-12 03:09:00,50.5,48.0,29.99,NNW,328,1.0,5.0,91,0.00,,---,0.00,VWS V13.01,2013-03-12 07:09:00,
2013-03-12 03:10:00,50.5,48.0,29.99,NW,326,1.0,5.0,91,0.00,,---,0.00,VWS V13.01,2013-03-12 07:10:00,
2013-03-12 03:11:00,50.8,48.0,29.99,NW,318,1.0,2.0,90,0.00,,---,0.00,VWS V13.01,2013-03-12 07:11:00,
2013-03-12 03:12:00,50.8,48.0,29.98,West,278,0.0,4.0,90,0.00,,---,0.00,VWS V13.01,2013-03-12 07:12:00,
2013-03-12 03:13:00,51.0,48.2,29.98,SE,139,3.0,3.0,90,0.00,,---,0.00,VWS V13.01,2013-03-12 07:13:00,
2013-03-12 03:14:00,51.1,48.3,29.98,SW,230,1.0,3.0,90,0.00,,---,0.00,VWS V13.01,2013-03-12 07:14:00,
2013-03-12 03:15:00,51.1,48.3,29.98,West,269,1.0,3.0,90,0.00,,---,0.00,VWS V13.01,2013-03-12 07:15:00,
2013-03-12 03:16:00,51.4,48.6,29.98,NNW,330,2.0,10.0,90,0.00,,---,0.00,VWS V13.01,2013-03-12 07:16:00,
2013-03-12 03:17:00,51.5,48.4,29.98,NE,41,5.0,6.0,89,0.00,,---,0.00,VWS V13.01,2013-03-12 07:17:00,
2013-03-12 03:18:00,51.6,48.5,29.99,West,264,3.0,7.0,89,0.00,,---,0.00,VWS V13.01,2013-03-12 07:18:00,
2013-03-12 03:19:00,51.7,48.6,29.99,ENE,59,2.0,9.0,89,0.00,,---,0.00,VWS V13.01,2013-03-12 07:19:00,
2013-03-12 03:20:00,51.7,48.6,29.99,NNW,332,4.0,9.0,89,0.00,,---,0.00,VWS V13.01,2013-03-12 07:20:00,
2013-03-12 03:21:00,51.9,48.5,29.98,NNE,29,2.0,4.0,88,0.00,,---,0.00,VWS V13.01,2013-03-12 07:21:00,
2013-03-12 03:22:00,52.0,48.6,29.98,West,281,3.0,7.0,88,0.00,,---,0.00,VWS V13.01,2013-03-12 07:22:00,
2013-03-12 03:23:00,52.0,48.6,29.98,NW,320,1.0,9.0,88,0.00,,---,0.00,VWS V13.01,2013-03-12 07:23:00,
2013-03-12 03:24:00,52.1,48.7,29.98,WNW,297,4.0,4.0,88,0.00,,---,0.00,VWS V13.01,2013-03-12 07:24:00,
2013-03-12 03:25:00,52.1,48.7,29.98,WSW,246,4.0,4.0,88,0.00,,---,0.00,VWS V13.01,2013-03-12 07:25:00,
2013-03-12 03:26:00,52.2,48.8,29.98,NW,316,2.0,6.0,88,0.00,,---,0.00,VWS V13.01,2013-03-12 07:26:00,
2013-03-12 03:27:00,52.2,48.8,29.98,NW,308,1.0,5.0,88,0.00,,---,0.00,VWS V13.01,2013-03-12 07:27:00,
2013-03-12 03:28:00,52.2,48.5,29.98,North,4,2.0,3.0,87,0.00,,---,0.00,VWS V13.01,2013-03-12 07:28:00,
2013-03-12 03:29:00,52.2,48.5,29.98,NW,324,1.0,3.0,87,0.00,,---,0.00,VWS V13.01,2013-03-12 07:29:00,
2013-03-12 03:30:00,52.2,48.5,29.98,North,10,1.0,3.0,87,0.00,,---,0.00,VWS V13.01,2013-03-12 07:30:00,
2013-03-12 03:31:00,52.3,48.5,29.98,NNW,328,2.0,6.0,87,0.00,,---,0.00,VWS V13.01,2013-03-12 07:31:00,
2013-03-12 03:32:00,52.2,48.5,29.98,NNW,340,2.0,2.0,87,0.00,,---,0.00,VWS V13.01,2013-03-12 07:32:00,
2013-03-12 03:33:00,52.3,48.5,29.98,NNW,332,3.0,6.0,87,0.00,,---,0.00,VWS V13.01,2013-03-12 07:33:00,
2013-03-12 03:34:00,52.3,48.5,29.98,WSW,257,3.0,3.0,87,0.00,,---,0.00,VWS V13.01,2013-03-12 07:34:00,
2013-03-12 03:35:00,52.3,48.5,29.98,South,169,1.0,3.0,87,0.00,,---,0.00,VWS V13.01,2013-03-12 07:35:00,
2013-03-12 03:36:00,52.3,48.5,29.97,WNW,301,3.0,9.0,87,0.00,,---,0.00,VWS V13.01,2013-03-12 07:36:00,
2013-03-12 03:37:00,52.3,48.5,29.97,North,353,3.0,5.0,87,0.00,,---,0.00,VWS V13.01,2013-03-12 07:37:00,
2013-03-12 03:38:00,52.3,48.5,29.97,WNW,301,2.0,3.0,87,0.00,,---,0.00,VWS V13.01,2013-03-12 07:38:00,
2013-03-12 03:39:00,52.3,48.5,29.97,NNE,14,1.0,7.0,87,0.00,,---,0.00,VWS V13.01,2013-03-12 07:39:00,
2013-03-12 03:40:00,52.3,48.5,29.97,NNW,340,1.0,7.0,87,0.00,,---,0.00,VWS V13.01,2013-03-12 07:40:00,
2013-03-12 03:41:00,52.3,48.5,29.97,NW,310,4.0,4.0,87,0.00,,---,0.00,VWS V13.01,2013-03-12 07:41:00,
2013-03-12 03:42:00,52.3,48.5,29.97,NE,37,6.0,7.0,87,0.00,,---,0.00,VWS V13.01,2013-03-12 07:42:00,
2013-03-12 03:43:00,52.3,48.5,29.97,WNW,295,3.0,7.0,87,0.00,,---,0.00,VWS V13.01,2013-03-12 07:43:00,
2013-03-12 03:44:00,52.3,48.5,29.97,NW,309,0.0,3.0,87,0.00,,---,0.00,VWS V13.01,2013-03-12 07:44:00,
2013-03-12 03:45:00,52.3,48.5,29.97,NW,311,1.0,3.0,87,0.00,,---,0.00,VWS V13.01,2013-03-12 07:45:00,
2013-03-12 03:46:00,52.3,48.5,29.97,North,3,2.0,9.0,87,0.00,,---,0.00,VWS V13.01,2013-03-12 07:46:00,
2013-03-12 03:47:00,52.2,48.5,29.97,North,359,3.0,6.0,87,0.00,,---,0.00,VWS V13.01,2013-03-12 07:47:00,
2013-03-12 03:48:00,52.2,48.5,29.97,NNW,344,2.0,6.0,87,0.00,,---,0.00,VWS V13.01,2013-03-12 07:48:00,
2013-03-12 03:49:00,52.2,48.5,29.97,NNW,335,0.0,4.0,87,0.00,,---,0.00,VWS V13.01,2013-03-12 07:49:00,
2013-03-12 03:50:00,52.2,48.5,29.97,NNW,335,0.0,4.0,87,0.00,,---,0.00,VWS V13.01,2013-03-12 07:50:00,
2013-03-12 03:51:00,52.2,48.5,29.97,NW,314,3.0,4.0,87,0.00,,---,0.00,VWS V13.01,2013-03-12 07:51:00,
2013-03-12 03:52:00,52.2,48.5,29.97,North,2,9.0,9.0,87,0.00,,---,0.00,VWS V13.01,2013-03-12 07:52:00,
2013-03-12 03:53:00,52.2,48.5,29.97,WNW,303,1.0,9.0,87,0.00,,---,0.00,VWS V13.01,2013-03-12 07:53:00,
2013-03-12 03:54:00,52.2,48.5,29.97,NW,312,2.0,5.0,87,0.00,,---,0.00,VWS V13.01,2013-03-12 07:54:00,
2013-03-12 03:55:00,52.2,48.5,29.97,WSW,253,1.0,5.0,87,0.00,,---,0.00,VWS V13.01,2013-03-12 07:55:00,
2013-03-12 03:56:00,52.1,48.4,29.97,SW,231,3.0,8.0,87,0.00,,---,0.00,VWS V13.01,2013-03-12 07:56:00,
2013-03-12 03:57:00,52.1,48.4,29.97,North,350,2.0,10.0,87,0.00,,---,0.00,VWS V13.01,2013-03-12 07:57:00,
2013-03-12 03:58:00,52.1,48.4,29.96,NW,311,7.0,7.0,87,0.00,,---,0.00,VWS V13.01,2013-03-12 07:58:00,
2013-03-12 03:59:00,52.1,48.4,29.96,NW,309,2.0,7.0,87,0.00,,---,0.00,VWS V13.01,2013-03-12 07:59:00,
2013-03-12 04:00:00,52.1,48.4,29.96,NW,324,3.0,7.0,87,0.00,,---,0.00,VWS V13.01,2013-03-12 08:00:00,
2013-03-12 04:01:00,52.1,48.4,29.96,NW,310,0.0,3.0,87,0.00,,---,0.00,VWS V13.01,2013-03-12 08:01:00,
2013-03-12 04:02:00,52.1,48.4,29.96,NW,314,1.0,5.0,87,0.00,,---,0.00,VWS V13.01,2013-03-12 08:02:00,
2013-03-12 04:03:00,52.1,48.4,29.96,WNW,298,3.0,10.0,87,0.00,,---,0.00,VWS V13.01,2013-03-12 08:03:00,
2013-03-12 04:04:00,52.1,48.4,29.97,ENE,77,4.0,4.0,87,0.00,,---,0.00,VWS V13.01,2013-03-12 08:04:00,
2013-03-12 04:05:00,52.1,48.4,29.97,NNE,33,3.0,4.0,87,0.00,,---,0.00,VWS V13.01,2013-03-12 08:05:00,
2013-03-12 04:06:00,52.1,48.4,29.97,North,358,1.0,7.0,87,0.00,,---,0.00,VWS V13.01,2013-03-12 08:06:00,
2013-03-12 04:07:00,52.2,48.5,29.97,NE,35,6.0,6.0,87,0.00,,---,0.00,VWS V13.01,2013-03-12 08:07:00,
2013-03-12 04:08:00,52.1,48.4,29.97,North,9,3.0,6.0,87,0.00,,---,0.00,VWS V13.01,2013-03-12 08:08:00,
2013-03-12 04:09:00,52.1,48.4,29.97,NNW,328,2.0,3.0,87,0.00,,---,0.00,VWS V13.01,2013-03-12 08:09:00,
2013-03-12 04:10:00,52.1,48.4,29.97,NNW,328,1.0,3.0,87,0.00,,---,0.00,VWS V13.01,2013-03-12 08:10:00,
2013-03-12 04:11:00,52.1,48.4,29.97,NNW,330,8.0,8.0,87,0.00,,---,0.00,VWS V13.01,2013-03-12 08:11:00,
2013-03-12 04:12:00,52.1,48.4,29.97,NNE,20,2.0,8.0,87,0.00,,---,0.00,VWS V13.01,2013-03-12 08:12:00,
2013-03-12 04:13:00,52.1,48.4,29.97,North,356,2.0,6.0,87,0.00,,---,0.00,VWS V13.01,2013-03-12 08:13:00,
2013-03-12 04:14:00,52.1,48.4,29.97,East,81,2.0,4.0,87,0.00,,---,0.00,VWS V13.01,2013-03-12 08:14:00,
2013-03-12 04:15:00,52.1,48.4,29.97,NNW,332,4.0,4.0,87,0.00,,---,0.00,VWS V13.01,2013-03-12 08:15:00,
2013-03-12 04:16:00,52.2,48.5,29.97,WNW,302,1.0,9.0,87,0.00,,---,0.00,VWS V13.01,2013-03-12 08:16:00,
2013-03-12 04:17:00,52.2,48.5,29.96,NE,35,3.0,5.0,87,0.00,,---,0.00,VWS V13.01,2013-03-12 08:17:00,
2013-03-12 04:18:00,52.2,48.5,29.97,North,2,3.0,6.0,87,0.00,,---,0.00,VWS V13.01,2013-03-12 08:18:00,
2013-03-12 04:19:00,52.2,48.5,29.97,NW,318,4.0,12.0,87,0.00,,---,0.00,VWS V13.01,2013-03-12 08:19:00,
2013-03-12 04:20:00,52.2,48.5,29.97,NNW,335,12.0,12.0,87,0.00,,---,0.00,VWS V13.01,2013-03-12 08:20:00,
2013-03-12 04:21:00,52.2,48.2,29.96,North,7,3.0,10.0,86,0.00,,---,0.00,VWS V13.01,2013-03-12 08:21:00,
2013-03-12 04:22:00,52.2,48.2,29.96,WNW,282,2.0,7.0,86,0.00,,---,0.00,VWS V13.01,2013-03-12 08:22:00,
2013-03-12 04:23:00,52.2,48.2,29.96,NNE,16,9.0,11.0,86,0.00,,---,0.00,VWS V13.01,2013-03-12 08:23:00,
2013-03-12 04:24:00,52.2,48.2,29.96,WNW,301,3.0,9.0,86,0.00,,---,0.00,VWS V13.01,2013-03-12 08:24:00,
2013-03-12 04:25:00,52.2,48.2,29.96,West,277,3.0,9.0,86,0.00,,---,0.00,VWS V13.01,2013-03-12 08:25:00,
2013-03-12 04:26:00,52.2,48.2,29.96,SW,220,1.0,3.0,86,0.00,,---,0.00,VWS V13.01,2013-03-12 08:26:00,
2013-03-12 04:27:00,52.2,48.2,29.96,NNW,340,1.0,9.0,86,0.00,,---,0.00,VWS V13.01,2013-03-12 08:27:00,
2013-03-12 04:28:00,52.2,48.2,29.96,West,274,3.0,11.0,86,0.00,,---,0.00,VWS V13.01,2013-03-12 08:28:00,
2013-03-12 04:29:00,52.2,48.2,29.96,NW,310,2.0,5.0,86,0.00,,---,0.00,VWS V13.01,2013-03-12 08:29:00,
2013-03-12 04:30:00,52.2,48.2,29.96,WNW,293,3.0,5.0,86,0.00,,---,0.00,VWS V13.01,2013-03-12 08:30:00,
2013-03-12 04:31:00,52.3,48.2,29.96,NW,325,0.0,9.0,86,0.00,,---,0.00,VWS V13.01,2013-03-12 08:31:00,
2013-03-12 04:32:00,52.2,48.2,29.96,NNW,335,1.0,2.0,86,0.00,,---,0.00,VWS V13.01,2013-03-12 08:32:00,
2013-03-12 04:33:00,52.2,48.2,29.96,NW,309,2.0,4.0,86,0.00,,---,0.00,VWS V13.01,2013-03-12 08:33:00,
2013-03-12 04:34:00,52.2,48.2,29.96,West,266,4.0,4.0,86,0.00,,---,0.00,VWS V13.01,2013-03-12 08:34:00,
2013-03-12 04:35:00,52.2,48.2,29.96,NE,41,4.0,4.0,86,0.00,,---,0.00,VWS V13.01,2013-03-12 08:35:00,
2013-03-12 04:36:00,52.2,48.2,29.96,NW,305,0.0,2.0,86,0.00,,---,0.00,VWS V13.01,2013-03-12 08:36:00,
2013-03-12 04:37:00,52.2,48.2,29.96,NW,312,2.0,5.0,86,0.00,,---,0.00,VWS V13.01,2013-03-12 08:37:00,
2013-03-12 04:38:00,52.2,48.2,29.96,West,266,1.0,3.0,86,0.00,,---,0.00,VWS V13.01,2013-03-12 08:38:00,
2013-03-12 04:39:00,52.2,48.2,29.96,NNE,27,9.0,9.0,86,0.00,,---,0.00,VWS V13.01,2013-03-12 08:39:00,
2013-03-12 04:40:00,52.2,48.2,29.96,NNW,341,5.0,5.0,86,0.00,,---,0.00,VWS V13.01,2013-03-12 08:40:00,
2013-03-12 04:41:00,52.2,48.2,29.96,NW,314,0.0,3.0,86,0.00,,---,0.00,VWS V13.01,2013-03-12 08:41:00,
2013-03-12 04:42:00,52.3,48.2,29.96,East,94,1.0,2.0,86,0.00,,---,0.00,VWS V13.01,2013-03-12 08:42:00,
2013-03-12 04:43:00,52.2,48.2,29.95,WNW,289,6.0,6.0,86,0.00,,---,0.00,VWS V13.01,2013-03-12 08:43:00,
2013-03-12 04:44:00,52.2,48.2,29.95,NW,314,2.0,9.0,86,0.00,,---,0.00,VWS V13.01,2013-03-12 08:44:00,
2013-03-12 04:45:00,52.2,48.2,29.95,North,4,1.0,9.0,86,0.00,,---,0.00,VWS V13.01,2013-03-12 08:45:00,
2013-03-12 04:46:00,52.3,48.2,29.95,WNW,300,2.0,3.0,86,0.00,,---,0.00,VWS V13.01,2013-03-12 08:46:00,
2013-03-12 04:47:00,52.3,48.2,29.95,NW,325,3.0,5.0,86,0.00,,---,0.00,VWS V13.01,2013-03-12 08:47:00,
2013-03-12 04:48:00,52.3,48.5,29.95,NNW,345,2.0,6.0,87,0.00,,---,0.00,VWS V13.01,2013-03-12 08:48:00,
2013-03-12 04:49:00,52.3,48.5,29.95,NW,311,3.0,5.0,87,0.00,,---,0.00,VWS V13.01,2013-03-12 08:49:00,
2013-03-12 04:50:00,52.2,48.5,29.95,NNW,333,5.0,5.0,87,0.00,,---,0.00,VWS V13.01,2013-03-12 08:50:00,
2013-03-12 04:51:00,52.3,48.5,29.94,NNW,335,1.0,6.0,87,0.00,,---,0.00,VWS V13.01,2013-03-12 08:51:00,
2013-03-12 04:52:00,52.2,48.5,29.94,North,4,2.0,5.0,87,0.00,,---,0.00,VWS V13.01,2013-03-12 08:52:00,
2013-03-12 04:53:00,52.3,48.5,29.94,WNW,297,1.0,8.0,87,0.00,,---,0.00,VWS V13.01,2013-03-12 08:53:00,
2013-03-12 04:54:00,52.3,48.5,29.94,North,4,2.0,3.0,87,0.00,,---,0.00,VWS V13.01,2013-03-12 08:54:00,
2013-03-12 04:55:00,52.3,48.5,29.94,NW,324,1.0,3.0,87,0.00,,---,0.00,VWS V13.01,2013-03-12 08:55:00,
2013-03-12 04:56:00,52.2,48.5,29.94,NNW,329,1.0,4.0,87,0.00,,---,0.00,VWS V13.01,2013-03-12 08:56:00,
2013-03-12 04:57:00,52.2,48.5,29.94,NW,312,1.0,3.0,87,0.00,,---,0.00,VWS V13.01,2013-03-12 08:57:00,
2013-03-12 04:58:00,52.2,48.5,29.95,WSW,248,2.0,7.0,87,0.00,,---,0.00,VWS V13.01,2013-03-12 08:58:00,
2013-03-12 04:59:00,52.2,48.5,29.95,NW,326,3.0,6.0,87,0.00,,---,0.00,VWS V13.01,2013-03-12 08:59:00,
2013-03-12 05:00:00,52.2,48.5,29.95,NE,35,5.0,6.0,87,0.00,,---,0.00,VWS V13.01,2013-03-12 09:00:00,
2013-03-12 05:01:00,52.2,48.5,29.95,SSE,149,1.0,6.0,87,0.00,,---,0.00,VWS V13.01,2013-03-12 09:01:00,
2013-03-12 05:02:00,52.2,48.5,29.95,North,355,7.0,12.0,87,0.00,,---,0.00,VWS V13.01,2013-03-12 09:02:00,
2013-03-12 05:03:00,52.2,48.5,29.95,NW,312,2.0,7.0,87,0.00,,---,0.00,VWS V13.01,2013-03-12 09:03:00,
2013-03-12 05:04:00,52.2,48.5,29.95,NNW,347,1.0,3.0,87,0.00,,---,0.00,VWS V13.01,2013-03-12 09:04:00,
2013-03-12 05:05:00,52.2,48.5,29.95,WNW,301,2.0,3.0,87,0.00,,---,0.00,VWS V13.01,2013-03-12 09:05:00,
2013-03-12 05:06:00,52.2,48.5,29.95,NW,310,4.0,4.0,87,0.00,,---,0.00,VWS V13.01,2013-03-12 09:06:00,
2013-03-12 05:07:00,52.2,48.5,29.94,North,359,3.0,6.0,87,0.00,,---,0.00,VWS V13.01,2013-03-12 09:07:00,
2013-03-12 05:08:00,52.2,48.5,29.95,NNW,338,1.0,3.0,87,0.00,,---,0.00,VWS V13.01,2013-03-12 09:08:00,
2013-03-12 05:09:00,52.1,48.4,29.95,West,272,0.0,3.0,87,0.00,,---,0.00,VWS V13.01,2013-03-12 09:09:00,
2013-03-12 05:10:00,52.1,48.4,29.95,West,272,1.0,3.0,87,0.00,,---,0.00,VWS V13.01,2013-03-12 09:10:00,
2013-03-12 05:11:00,52.1,48.4,29.94,West,268,2.0,4.0,87,0.00,,---,0.00,VWS V13.01,2013-03-12 09:11:00,
2013-03-12 05:12:00,52.1,48.4,29.95,NNW,347,1.0,3.0,87,0.00,,---,0.00,VWS V13.01,2013-03-12 09:12:00,
2013-03-12 05:13:00,52.1,48.4,29.94,WNW,285,1.0,2.0,87,0.00,,---,0.00,VWS V13.01,2013-03-12 09:13:00,
2013-03-12 05:14:00,52.1,48.4,29.94,NW,322,2.0,6.0,87,0.00,,---,0.00,VWS V13.01,2013-03-12 09:14:00,
2013-03-12 05:15:00,52.1,48.4,29.94,North,352,6.0,6.0,87,0.00,,---,0.00,VWS V13.01,2013-03-12 09:15:00,
2013-03-12 05:16:00,52.0,48.3,29.94,NW,324,3.0,4.0,87,0.00,,---,0.00,VWS V13.01,2013-03-12 09:16:00,
2013-03-12 05:17:00,52.0,48.3,29.94,NNE,16,2.0,5.0,87,0.00,,---,0.00,VWS V13.01,2013-03-12 09:17:00,
2013-03-12 05:18:00,52.0,48.3,29.94,NNE,22,4.0,4.0,87,0.00,,---,0.00,VWS V13.01,2013-03-12 09:18:00,
2013-03-12 05:19:00,52.0,48.3,29.94,West,270,1.0,4.0,87,0.00,,---,0.00,VWS V13.01,2013-03-12 09:19:00,
2013-03-12 05:20:00,52.0,48.3,29.94,West,277,1.0,4.0,87,0.00,,---,0.00,VWS V13.01,2013-03-12 09:20:00,
2013-03-12 05:21:00,51.9,48.2,29.94,NW,308,3.0,4.0,87,0.00,,---,0.00,VWS V13.01,2013-03-12 09:21:00,
2013-03-12 05:22:00,51.9,48.2,29.94,WNW,291,1.0,5.0,87,0.00,,---,0.00,VWS V13.01,2013-03-12 09:22:00,
2013-03-12 05:23:00,51.9,48.2,29.94,North,8,0.0,1.0,87,0.00,,---,0.00,VWS V13.01,2013-03-12 09:23:00,
2013-03-12 05:24:00,51.9,48.2,29.94,North,4,1.0,3.0,87,0.00,,---,0.00,VWS V13.01,2013-03-12 09:24:00,
2013-03-12 05:25:00,51.9,48.2,29.94,NW,309,2.0,3.0,87,0.00,,---,0.00,VWS V13.01,2013-03-12 09:25:00,
2013-03-12 05:26:00,51.9,48.2,29.94,West,260,2.0,4.0,87,0.00,,---,0.00,VWS V13.01,2013-03-12 09:26:00,
2013-03-12 05:27:00,51.9,48.5,29.94,NNW,348,3.0,6.0,88,0.00,,---,0.00,VWS V13.01,2013-03-12 09:27:00,
2013-03-12 05:28:00,51.9,48.5,29.94,NNW,342,2.0,7.0,88,0.00,,---,0.00,VWS V13.01,2013-03-12 09:28:00,
2013-03-12 05:29:00,51.9,48.5,29.94,North,4,1.0,3.0,88,0.00,,---,0.00,VWS V13.01,2013-03-12 09:29:00,
2013-03-12 05:30:00,51.9,48.5,29.94,NW,314,1.0,3.0,88,0.00,,---,0.00,VWS V13.01,2013-03-12 09:30:00,
2013-03-12 05:31:00,51.9,48.5,29.94,NNW,339,1.0,7.0,88,0.00,,---,0.00,VWS V13.01,2013-03-12 09:31:00,
2013-03-12 05:32:00,51.9,48.5,29.94,NNE,25,5.0,5.0,88,0.00,,---,0.00,VWS V13.01,2013-03-12 09:32:00,
2013-03-12 05:33:00,51.8,48.4,29.94,NNW,337,7.0,7.0,88,0.00,,---,0.00,VWS V13.01,2013-03-12 09:33:00,
2013-03-12 05:34:00,51.8,48.4,29.94,NW,320,2.0,7.0,88,0.00,,---,0.00,VWS V13.01,2013-03-12 09:34:00,
2013-03-12 05:35:00,51.8,48.4,29.94,NNW,338,3.0,7.0,88,0.00,,---,0.00,VWS V13.01,2013-03-12 09:35:00,
2013-03-12 05:36:00,51.8,48.4,29.94,WNW,303,4.0,11.0,88,0.00,,---,0.00,VWS V13.01,2013-03-12 09:36:00,
2013-03-12 05:37:00,51.8,48.4,29.94,WSW,242,2.0,5.0,88,0.00,,---,0.00,VWS V13.01,2013-03-12 09:37:00,
2013-03-12 05:38:00,51.8,48.4,29.94,NW,321,3.0,4.0,88,0.00,,---,0.00,VWS V13.01,2013-03-12 09:38:00,
2013-03-12 05:39:00,51.8,48.7,29.94,NE,35,2.0,4.0,89,0.00,,---,0.00,VWS V13.01,2013-03-12 09:39:00,
2013-03-12 05:40:00,51.7,48.6,29.94,WNW,303,2.0,4.0,89,0.00,,---,0.00,VWS V13.01,2013-03-12 09:40:00,
2013-03-12 05:41:00,51.7,48.6,29.94,NNE,23,4.0,12.0,89,0.00,,---,0.00,VWS V13.01,2013-03-12 09:41:00,
2013-03-12 05:42:00,51.7,48.6,29.94,NW,326,1.0,5.0,89,0.00,,---,0.00,VWS V13.01,2013-03-12 09:42:00,
2013-03-12 05:43:00,51.7,48.6,29.94,North,5,3.0,4.0,89,0.00,,---,0.00,VWS V13.01,2013-03-12 09:43:00,
2013-03-12 05:44:00,51.7,48.6,29.94,NW,320,1.0,3.0,89,0.00,,---,0.00,VWS V13.01,2013-03-12 09:44:00,
2013-03-12 05:45:00,51.7,48.6,29.94,WNW,287,2.0,3.0,89,0.00,,---,0.00,VWS V13.01,2013-03-12 09:45:00,
2013-03-12 05:46:00,51.6,48.5,29.94,North,349,3.0,4.0,89,0.00,,---,0.00,VWS V13.01,2013-03-12 09:46:00,
2013-03-12 05:48:00,51.6,48.5,29.94,SW,227,0.0,2.0,89,0.00,,---,0.00,VWS V13.01,2013-03-12 09:48:00,
2013-03-12 05:49:00,51.6,48.5,29.94,North,2,1.0,4.0,89,0.00,,---,0.00,VWS V13.01,2013-03-12 09:49:00,
2013-03-12 05:50:00,51.6,48.5,29.94,NNW,345,4.0,4.0,89,0.00,,---,0.00,VWS V13.01,2013-03-12 09:50:00,
2013-03-12 05:51:00,51.6,48.5,29.94,NNW,335,1.0,7.0,89,0.00,,---,0.00,VWS V13.01,2013-03-12 09:51:00,
2013-03-12 05:52:00,51.5,48.4,29.94,WNW,284,1.0,2.0,89,0.00,,---,0.00,VWS V13.01,2013-03-12 09:52:00,
2013-03-12 05:54:00,51.5,48.4,29.94,NW,314,2.0,4.0,89,0.00,,---,0.00,VWS V13.01,2013-03-12 09:54:00,
2013-03-12 05:55:00,51.5,48.4,29.94,WNW,295,1.0,4.0,89,0.00,,---,0.00,VWS V13.01,2013-03-12 09:55:00,
2013-03-12 05:56:00,51.5,48.4,29.94,NNW,331,1.0,6.0,89,0.00,,---,0.00,VWS V13.01,2013-03-12 09:56:00,
2013-03-12 05:57:00,51.5,48.4,29.93,WNW,295,0.0,3.0,89,0.00,,---,0.00,VWS V13.01,2013-03-12 09:57:00,
2013-03-12 05:58:00,51.5,48.4,29.94,NW,326,0.0,1.0,89,0.00,,---,0.00,VWS V13.01,2013-03-12 09:58:00,
2013-03-12 05:59:00,51.4,48.3,29.94,NW,322,0.0,1.0,89,0.00,,---,0.00,VWS V13.01,2013-03-12 09:59:00,
2013-03-12 06:00:00,51.4,48.3,29.94,NW,322,0.0,1.0,89,0.00,,---,0.00,VWS V13.01,2013-03-12 10:00:00,
2013-03-12 06:01:00,51.4,48.3,29.94,NW,325,4.0,4.0,89,0.00,,---,0.00,VWS V13.01,2013-03-12 10:01:00,
2013-03-12 06:02:00,51.4,48.3,29.94,NW,310,1.0,4.0,89,0.00,,---,0.00,VWS V13.01,2013-03-12 10:02:00,
2013-03-12 06:03:00,51.4,48.3,29.94,NNW,328,1.0,10.0,89,0.00,,---,0.00,VWS V13.01,2013-03-12 10:03:00,
2013-03-12 06:04:00,51.4,48.3,29.94,NNW,341,3.0,4.0,89,0.00,,---,0.00,VWS V13.01,2013-03-12 10:04:00,
2013-03-12 06:05:00,51.4,48.3,29.94,NNW,339,2.0,4.0,89,0.00,,---,0.00,VWS V13.01,2013-03-12 10:05:00,
2013-03-12 06:06:00,51.4,48.3,29.94,SE,135,5.0,5.0,89,0.00,,---,0.00,VWS V13.01,2013-03-12 10:06:00,
2013-03-12 06:07:00,51.3,48.2,29.94,NNW,339,1.0,5.0,89,0.00,,---,0.00,VWS V13.01,2013-03-12 10:07:00,
2013-03-12 06:08:00,51.3,48.2,29.94,WNW,291,3.0,3.0,89,0.00,,---,0.00,VWS V13.01,2013-03-12 10:08:00,
2013-03-12 06:09:00,51.3,48.2,29.94,NW,314,1.0,4.0,89,0.00,,---,0.00,VWS V13.01,2013-03-12 10:09:00,
2013-03-12 06:10:00,51.3,48.2,29.94,WNW,297,2.0,4.0,89,0.00,,---,0.00,VWS V13.01,2013-03-12 10:10:00,
2013-03-12 06:11:00,51.3,48.2,29.94,NNE,15,5.0,11.0,89,0.00,,---,0.00,VWS V13.01,2013-03-12 10:11:00,
2013-03-12 06:12:00,51.3,48.2,29.94,SW,235,1.0,5.0,89,0.00,,---,0.00,VWS V13.01,2013-03-12 10:12:00,
2013-03-12 06:13:00,51.3,48.2,29.94,North,9,2.0,5.0,89,0.00,,---,0.00,VWS V13.01,2013-03-12 10:13:00,
2013-03-12 06:14:00,51.4,48.6,29.94,SSE,159,3.0,3.0,90,0.00,,---,0.00,VWS V13.01,2013-03-12 10:14:00,
2013-03-12 06:15:00,51.4,48.6,29.94,WSW,239,2.0,2.0,90,0.00,,---,0.00,VWS V13.01,2013-03-12 10:15:00,
2013-03-12 06:16:00,51.4,48.6,29.94,NNW,336,0.0,6.0,90,0.00,,---,0.00,VWS V13.01,2013-03-12 10:16:00,
2013-03-12 06:17:00,51.4,48.6,29.93,NE,43,2.0,6.0,90,0.00,,---,0.00,VWS V13.01,2013-03-12 10:17:00,
2013-03-12 06:18:00,51.4,48.6,29.94,NE,39,0.0,2.0,90,0.00,,---,0.00,VWS V13.01,2013-03-12 10:18:00,
2013-03-12 06:19:00,51.4,48.6,29.93,NNW,345,1.0,3.0,90,0.00,,---,0.00,VWS V13.01,2013-03-12 10:19:00,
2013-03-12 06:20:00,51.4,48.6,29.93,WNW,299,2.0,2.0,90,0.00,,---,0.00,VWS V13.01,2013-03-12 10:20:00,
2013-03-12 06:21:00,51.4,48.6,29.94,WSW,258,2.0,4.0,90,0.00,,---,0.00,VWS V13.01,2013-03-12 10:21:00,
2013-03-12 06:22:00,51.4,48.3,29.94,NNE,12,1.0,3.0,89,0.00,,---,0.00,VWS V13.01,2013-03-12 10:22:00,
2013-03-12 06:23:00,51.4,48.3,29.94,North,356,1.0,5.0,89,0.00,,---,0.00,VWS V13.01,2013-03-12 10:23:00,
2013-03-12 06:24:00,51.4,48.3,29.94,NNW,343,0.0,1.0,89,0.00,,---,0.00,VWS V13.01,2013-03-12 10:24:00,
2013-03-12 06:25:00,51.4,48.3,29.94,NNW,343,0.0,1.0,89,0.00,,---,0.00,VWS V13.01,2013-03-12 10:25:00,
2013-03-12 06:26:00,51.4,48.3,29.94,NNW,334,4.0,9.0,89,0.00,,---,0.00,VWS V13.01,2013-03-12 10:26:00,
2013-03-12 06:27:00,51.4,48.3,29.94,NNW,339,2.0,6.0,89,0.00,,---,0.00,VWS V13.01,2013-03-12 10:27:00,
2013-03-12 06:28:00,51.4,48.3,29.94,WNW,287,1.0,7.0,89,0.00,,---,0.00,VWS V13.01,2013-03-12 10:28:00,
2013-03-12 06:29:00,51.4,48.3,29.94,West,262,3.0,7.0,89,0.00,,---,0.00,VWS V13.01,2013-03-12 10:29:00,
2013-03-12 06:30:00,51.4,48.3,29.94,North,3,2.0,7.0,89,0.00,,---,0.00,VWS V13.01,2013-03-12 10:30:00,
2013-03-12 06:31:00,51.4,48.3,29.94,NW,318,1.0,9.0,89,0.00,,---,0.00,VWS V13.01,2013-03-12 10:31:00,
2013-03-12 06:32:00,51.5,48.4,29.94,NNW,335,3.0,5.0,89,0.00,,---,0.00,VWS V13.01,2013-03-12 10:32:00,
2013-03-12 06:33:00,51.5,48.4,29.94,WNW,285,4.0,13.0,89,0.00,,---,0.00,VWS V13.01,2013-03-12 10:33:00,
2013-03-12 06:34:00,51.5,48.4,29.94,NNW,330,0.0,4.0,89,0.00,,---,0.00,VWS V13.01,2013-03-12 10:34:00,
2013-03-12 06:35:00,51.5,48.4,29.94,NNW,330,1.0,4.0,89,0.00,,---,0.00,VWS V13.01,2013-03-12 10:35:00,
2013-03-12 06:36:00,51.5,48.7,29.94,West,281,1.0,3.0,90,0.00,,---,0.00,VWS V13.01,2013-03-12 10:36:00,
2013-03-12 06:37:00,51.5,48.7,29.94,NNW,337,3.0,4.0,90,0.00,,---,0.00,VWS V13.01,2013-03-12 10:37:00,
2013-03-12 06:38:00,51.5,48.7,29.94,NNE,16,2.0,5.0,90,0.00,,---,0.00,VWS V13.01,2013-03-12 10:38:00,
2013-03-12 06:39:00,51.5,48.7,29.94,NNW,348,4.0,4.0,90,0.00,,---,0.00,VWS V13.01,2013-03-12 10:39:00,
2013-03-12 06:40:00,51.5,48.7,29.94,NW,307,2.0,4.0,90,0.00,,---,0.00,VWS V13.01,2013-03-12 10:40:00,
2013-03-12 06:41:00,51.5,48.7,29.94,NW,322,2.0,6.0,90,0.00,,---,0.00,VWS V13.01,2013-03-12 10:41:00,
2013-03-12 06:42:00,51.5,48.7,29.94,NW,325,2.0,5.0,90,0.00,,---,0.00,VWS V13.01,2013-03-12 10:42:00,
2013-03-12 06:43:00,51.5,48.7,29.94,NNW,338,2.0,3.0,90,0.00,,---,0.00,VWS V13.01,2013-03-12 10:43:00,
2013-03-12 06:44:00,51.5,48.7,29.94,NNW,329,2.0,2.0,90,0.00,,---,0.00,VWS V13.01,2013-03-12 10:44:00,
2013-03-12 06:45:00,51.5,48.7,29.94,North,358,1.0,2.0,90,0.00,,---,0.00,VWS V13.01,2013-03-12 10:45:00,
2013-03-12 06:46:00,51.5,48.7,29.94,NNW,341,1.0,4.0,90,0.00,,---,0.00,VWS V13.01,2013-03-12 10:46:00,
2013-03-12 06:47:00,51.5,48.7,29.94,NW,318,5.0,11.0,90,0.00,,---,0.00,VWS V13.01,2013-03-12 10:47:00,
2013-03-12 06:48:00,51.5,48.7,29.94,NW,316,1.0,5.0,90,0.00,,---,0.00,VWS V13.01,2013-03-12 10:48:00,
2013-03-12 06:49:00,51.5,48.7,29.94,WNW,289,4.0,6.0,90,0.00,,---,0.00,VWS V13.01,2013-03-12 10:49:00,
2013-03-12 06:50:00,51.5,48.7,29.94,WNW,297,1.0,6.0,90,0.00,,---,0.00,VWS V13.01,2013-03-12 10:50:00,
2013-03-12 06:51:00,51.4,48.6,29.94,North,10,4.0,7.0,90,0.00,,---,0.00,VWS V13.01,2013-03-12 10:51:00,
2013-03-12 06:52:00,51.4,48.6,29.94,NNW,329,6.0,13.0,90,0.00,,---,0.00,VWS V13.01,2013-03-12 10:52:00,
2013-03-12 06:53:00,51.4,48.6,29.94,NW,312,1.0,7.0,90,0.00,,---,0.00,VWS V13.01,2013-03-12 10:53:00,
2013-03-12 06:54:00,51.4,48.6,29.94,WNW,295,2.0,10.0,90,0.00,,---,0.00,VWS V13.01,2013-03-12 10:54:00,
2013-03-12 06:55:00,51.4,48.6,29.94,North,360,4.0,10.0,90,0.00,,---,0.00,VWS V13.01,2013-03-12 10:55:00,
2013-03-12 06:56:00,51.3,48.5,29.93,NW,304,3.0,5.0,90,0.00,,---,0.00,VWS V13.01,2013-03-12 10:56:00,
2013-03-12 06:57:00,51.3,48.5,29.93,NW,304,5.0,5.0,90,0.00,,---,0.00,VWS V13.01,2013-03-12 10:57:00,
2013-03-12 06:58:00,51.3,48.5,29.94,NW,311,1.0,5.0,90,0.00,,---,0.00,VWS V13.01,2013-03-12 10:58:00,
2013-03-12 06:59:00,51.3,48.5,29.93,NW,316,5.0,6.0,90,0.00,,---,0.00,VWS V13.01,2013-03-12 10:59:00,
2013-03-12 07:00:00,51.3,48.5,29.93,ESE,116,4.0,6.0,90,0.00,,---,0.00,VWS V13.01,2013-03-12 11:00:00,
2013-03-12 07:01:00,51.2,48.4,29.93,NW,322,1.0,5.0,90,0.00,,---,0.00,VWS V13.01,2013-03-12 11:01:00,
2013-03-12 07:02:00,51.2,48.4,29.93,NW,304,2.0,4.0,90,0.00,,---,0.00,VWS V13.01,2013-03-12 11:02:00,
2013-03-12 07:03:00,51.2,48.4,29.93,WSW,237,2.0,3.0,90,0.00,,---,0.00,VWS V13.01,2013-03-12 11:03:00,
2013-03-12 07:04:00,51.2,48.4,29.93,West,277,2.0,9.0,90,0.00,,---,0.00,VWS V13.01,2013-03-12 11:04:00,
2013-03-12 07:05:00,51.2,48.4,29.93,NE,49,4.0,9.0,90,0.00,,---,0.00,VWS V13.01,2013-03-12 11:05:00,
2013-03-12 07:06:00,51.2,48.4,29.93,SW,232,0.0,1.0,90,0.00,,---,0.00,VWS V13.01,2013-03-12 11:06:00,
2013-03-12 07:07:00,51.1,48.6,29.93,NNE,26,0.0,4.0,91,0.00,,---,0.00,VWS V13.01,2013-03-12 11:07:00,
2013-03-12 07:08:00,51.1,48.6,29.93,NNW,335,2.0,9.0,91,0.00,,---,0.00,VWS V13.01,2013-03-12 11:08:00,
2013-03-12 07:09:00,51.1,48.6,29.93,NW,322,0.0,3.0,91,0.00,,---,0.00,VWS V13.01,2013-03-12 11:09:00,
2013-03-12 07:10:00,51.1,48.6,29.93,North,355,2.0,3.0,91,0.00,,---,0.00,VWS V13.01,2013-03-12 11:10:00,
2013-03-12 07:11:00,51.1,48.6,29.93,NW,317,3.0,4.0,91,0.00,,---,0.00,VWS V13.01,2013-03-12 11:11:00,
2013-03-12 07:12:00,51.0,48.5,29.93,NNE,33,1.0,4.0,91,0.00,,---,0.00,VWS V13.01,2013-03-12 11:12:00,
2013-03-12 07:13:00,51.0,48.5,29.93,NW,316,2.0,3.0,91,0.00,,---,0.00,VWS V13.01,2013-03-12 11:13:00,
2013-03-12 07:14:00,51.0,48.5,29.93,WNW,299,2.0,9.0,91,0.00,,---,0.00,VWS V13.01,2013-03-12 11:14:00,
2013-03-12 07:15:00,51.0,48.5,29.93,NW,314,2.0,9.0,91,0.00,,---,0.00,VWS V13.01,2013-03-12 11:15:00,
2013-03-12 07:16:00,51.0,48.5,29.93,NW,325,4.0,4.0,91,0.01,,---,0.01,VWS V13.01,2013-03-12 11:16:00,
2013-03-12 07:17:00,51.0,48.5,29.93,North,8,3.0,6.0,91,0.01,,---,0.01,VWS V13.01,2013-03-12 11:17:00,
2013-03-12 07:18:00,51.0,48.5,29.93,NNW,331,2.0,4.0,91,0.01,,---,0.01,VWS V13.01,2013-03-12 11:18:00,
2013-03-12 07:19:00,51.0,48.5,29.93,WNW,302,2.0,5.0,91,0.01,,---,0.01,VWS V13.01,2013-03-12 11:19:00,
2013-03-12 07:20:00,51.0,48.5,29.93,NW,312,1.0,5.0,91,0.01,,---,0.01,VWS V13.01,2013-03-12 11:20:00,
2013-03-12 07:21:00,50.9,48.4,29.93,North,355,4.0,11.0,91,0.01,,---,0.01,VWS V13.01,2013-03-12 11:21:00,
2013-03-12 07:22:00,50.9,48.4,29.93,WNW,291,1.0,6.0,91,0.01,,---,0.01,VWS V13.01,2013-03-12 11:22:00,
2013-03-12 07:23:00,50.9,48.4,29.93,North,350,1.0,4.0,91,0.01,,---,0.01,VWS V13.01,2013-03-12 11:23:00,
2013-03-12 07:24:00,50.9,48.4,29.93,WNW,298,1.0,3.0,91,0.01,,---,0.01,VWS V13.01,2013-03-12 11:24:00,
2013-03-12 07:25:00,50.9,48.4,29.93,WNW,295,2.0,3.0,91,0.01,,---,0.01,VWS V13.01,2013-03-12 11:25:00,
2013-03-12 07:26:00,50.9,48.4,29.93,NNE,16,2.0,4.0,91,0.01,,---,0.01,VWS V13.01,2013-03-12 11:26:00,
2013-03-12 07:27:00,50.9,48.4,29.93,West,278,3.0,5.0,91,0.01,,---,0.01,VWS V13.01,2013-03-12 11:27:00,
2013-03-12 07:28:00,50.9,48.4,29.93,West,279,6.0,6.0,91,0.01,,---,0.01,VWS V13.01,2013-03-12 11:28:00,
2013-03-12 07:29:00,50.9,48.4,29.93,NNW,339,1.0,6.0,91,0.01,,---,0.01,VWS V13.01,2013-03-12 11:29:00,
2013-03-12 07:30:00,50.9,48.4,29.93,ENE,57,1.0,6.0,91,0.01,,---,0.01,VWS V13.01,2013-03-12 11:30:00,
2013-03-12 07:31:00,50.9,48.4,29.92,NW,315,2.0,4.0,91,0.01,,---,0.01,VWS V13.01,2013-03-12 11:31:00,
2013-03-12 07:32:00,51.0,48.5,29.92,North,355,1.0,4.0,91,0.01,,---,0.01,VWS V13.01,2013-03-12 11:32:00,
2013-03-12 07:33:00,51.0,48.5,29.92,NE,35,2.0,5.0,91,0.01,,---,0.01,VWS V13.01,2013-03-12 11:33:00,
2013-03-12 07:34:00,51.0,48.5,29.93,NNW,334,5.0,6.0,91,0.01,,---,0.01,VWS V13.01,2013-03-12 11:34:00,
2013-03-12 07:35:00,51.0,48.5,29.93,West,271,3.0,6.0,91,0.01,,---,0.01,VWS V13.01,2013-03-12 11:35:00,
2013-03-12 07:36:00,51.0,48.5,29.92,NW,308,3.0,3.0,91,0.01,,---,0.01,VWS V13.01,2013-03-12 11:36:00,
2013-03-12 07:37:00,51.0,48.5,29.93,NW,308,2.0,6.0,91,0.01,,---,0.01,VWS V13.01,2013-03-12 11:37:00,
2013-03-12 07:38:00,51.0,48.5,29.92,NNW,330,3.0,7.0,91,0.01,,---,0.01,VWS V13.01,2013-03-12 11:38:00,
2013-03-12 07:39:00,51.0,48.5,29.92,WNW,293,4.0,5.0,91,0.01,,---,0.01,VWS V13.01,2013-03-12 11:39:00,
2013-03-12 07:40:00,51.0,48.5,29.92,North,358,2.0,5.0,91,0.01,,---,0.01,VWS V13.01,2013-03-12 11:40:00,
2013-03-12 07:41:00,51.1,48.6,29.92,NNW,335,0.0,5.0,91,0.01,,---,0.01,VWS V13.01,2013-03-12 11:41:00,
2013-03-12 07:42:00,51.1,48.6,29.92,NNE,20,3.0,6.0,91,0.01,,---,0.01,VWS V13.01,2013-03-12 11:42:00,
2013-03-12 07:43:00,51.1,48.6,29.93,NW,326,5.0,5.0,91,0.01,,---,0.01,VWS V13.01,2013-03-12 11:43:00,
2013-03-12 07:44:00,51.1,48.6,29.93,NW,308,4.0,9.0,91,0.01,,---,0.01,VWS V13.01,2013-03-12 11:44:00,
2013-03-12 07:45:00,51.1,48.6,29.93,NNE,22,3.0,9.0,91,0.01,,---,0.01,VWS V13.01,2013-03-12 11:45:00,
2013-03-12 07:46:00,51.2,48.7,29.92,NNE,25,3.0,6.0,91,0.01,,---,0.01,VWS V13.01,2013-03-12 11:46:00,
2013-03-12 07:47:00,51.2,48.7,29.92,NNE,20,2.0,4.0,91,0.01,,---,0.01,VWS V13.01,2013-03-12 11:47:00,
2013-03-12 07:48:00,51.2,48.7,29.93,NW,309,0.0,4.0,91,0.01,,---,0.01,VWS V13.01,2013-03-12 11:48:00,
2013-03-12 07:49:00,51.3,48.8,29.93,NNE,14,3.0,6.0,91,0.01,,---,0.01,VWS V13.01,2013-03-12 11:49:00,
2013-03-12 07:50:00,51.3,48.8,29.93,WNW,300,4.0,6.0,91,0.01,,---,0.01,VWS V13.01,2013-03-12 11:50:00,
2013-03-12 07:51:00,51.3,48.8,29.93,WNW,301,4.0,7.0,91,0.01,,---,0.01,VWS V13.01,2013-03-12 11:51:00,
2013-03-12 07:52:00,51.3,48.8,29.93,NW,311,1.0,4.0,91,0.01,,---,0.01,VWS V13.01,2013-03-12 11:52:00,
2013-03-12 07:53:00,51.3,48.8,29.93,North,351,2.0,2.0,91,0.01,,---,0.01,VWS V13.01,2013-03-12 11:53:00,
2013-03-12 07:54:00,51.3,48.8,29.93,NNW,348,9.0,9.0,91,0.01,,---,0.01,VWS V13.01,2013-03-12 11:54:00,
2013-03-12 07:55:00,51.3,48.8,29.93,NNW,339,8.0,8.0,91,0.01,,---,0.01,VWS V13.01,2013-03-12 11:55:00,
2013-03-12 07:56:00,51.3,48.8,29.92,WNW,297,4.0,5.0,91,0.02,,---,0.02,VWS V13.01,2013-03-12 11:56:00,
2013-03-12 07:57:00,51.3,48.8,29.93,NW,322,2.0,9.0,91,0.02,,---,0.02,VWS V13.01,2013-03-12 11:57:00,
2013-03-12 07:58:00,51.3,48.8,29.93,NE,52,1.0,3.0,91,0.02,,---,0.02,VWS V13.01,2013-03-12 11:58:00,
2013-03-12 07:59:00,51.3,49.1,29.93,WSW,253,1.0,3.0,92,0.02,,---,0.02,VWS V13.01,2013-03-12 11:59:00,
2013-03-12 08:00:00,51.3,49.1,29.93,WSW,245,1.0,3.0,92,0.02,,---,0.02,VWS V13.01,2013-03-12 12:00:00,
2013-03-12 08:01:00,51.3,49.1,29.92,North,351,2.0,7.0,92,0.02,,---,0.02,VWS V13.01,2013-03-12 12:01:00,
2013-03-12 08:02:00,51.3,49.1,29.92,NW,308,1.0,3.0,92,0.02,,---,0.02,VWS V13.01,2013-03-12 12:02:00,
2013-03-12 08:03:00,51.3,49.1,29.92,NW,312,4.0,5.0,92,0.02,,---,0.02,VWS V13.01,2013-03-12 12:03:00,
2013-03-12 08:04:00,51.3,49.1,29.92,NW,321,1.0,6.0,92,0.02,,---,0.02,VWS V13.01,2013-03-12 12:04:00,
2013-03-12 08:05:00,51.3,49.1,29.92,NNW,345,0.0,6.0,92,0.02,,---,0.02,VWS V13.01,2013-03-12 12:05:00,
2013-03-12 08:06:00,51.3,49.1,29.92,NW,308,1.0,6.0,92,0.03,,---,0.03,VWS V13.01,2013-03-12 12:06:00,
2013-03-12 08:07:00,51.3,49.1,29.93,WNW,303,3.0,3.0,92,0.03,,---,0.03,VWS V13.01,2013-03-12 12:07:00,
2013-03-12 08:08:00,51.3,49.1,29.93,NW,310,4.0,6.0,92,0.03,,---,0.03,VWS V13.01,2013-03-12 12:08:00,
2013-03-12 08:10:00,51.3,49.1,29.93,NNW,328,4.0,7.0,92,0.03,,---,0.03,VWS V13.01,2013-03-12 12:10:00,
2013-03-12 08:11:00,51.3,49.1,29.92,WSW,255,3.0,4.0,92,0.03,,---,0.03,VWS V13.01,2013-03-12 12:11:00,
2013-03-12 08:12:00,51.3,49.1,29.93,West,279,7.0,7.0,92,0.03,,---,0.03,VWS V13.01,2013-03-12 12:12:00,
2013-03-12 08:13:00,51.3,49.1,29.92,WNW,293,4.0,10.0,92,0.03,,---,0.03,VWS V13.01,2013-03-12 12:13:00,
2013-03-12 08:14:00,51.4,49.2,29.93,NW,322,2.0,9.0,92,0.03,,---,0.03,VWS V13.01,2013-03-12 12:14:00,
2013-03-12 08:15:00,51.3,49.1,29.93,NW,320,3.0,9.0,92,0.03,,---,0.03,VWS V13.01,2013-03-12 12:15:00,
2013-03-12 08:16:00,51.4,49.2,29.93,WNW,303,3.0,10.0,92,0.03,,---,0.03,VWS V13.01,2013-03-12 12:16:00,
2013-03-12 08:17:00,51.4,49.2,29.93,North,2,5.0,5.0,92,0.02,,---,0.03,VWS V13.01,2013-03-12 12:17:00,
2013-03-12 08:18:00,51.4,49.2,29.92,North,349,5.0,10.0,92,0.02,,---,0.03,VWS V13.01,2013-03-12 12:18:00,
2013-03-12 08:19:00,51.4,49.2,29.92,NW,318,3.0,6.0,92,0.02,,---,0.03,VWS V13.01,2013-03-12 12:19:00,
2013-03-12 08:20:00,51.4,49.2,29.92,WNW,294,5.0,6.0,92,0.02,,---,0.03,VWS V13.01,2013-03-12 12:20:00,
2013-03-12 08:21:00,51.4,49.2,29.92,North,8,5.0,9.0,92,0.02,,---,0.03,VWS V13.01,2013-03-12 12:21:00,
2013-03-12 08:22:00,51.4,49.2,29.92,WNW,288,0.0,9.0,92,0.02,,---,0.03,VWS V13.01,2013-03-12 12:22:00,
2013-03-12 08:23:00,51.4,49.2,29.92,NNW,333,3.0,6.0,92,0.02,,---,0.03,VWS V13.01,2013-03-12 12:23:00,
2013-03-12 08:24:00,51.4,49.2,29.92,NW,310,3.0,6.0,92,0.02,,---,0.03,VWS V13.01,2013-03-12 12:24:00,
2013-03-12 08:25:00,51.4,49.2,29.92,North,358,2.0,6.0,92,0.02,,---,0.03,VWS V13.01,2013-03-12 12:25:00,
2013-03-12 08:26:00,51.5,49.3,29.92,SSW,209,2.0,4.0,92,0.02,,---,0.03,VWS V13.01,2013-03-12 12:26:00,
2013-03-12 08:27:00,51.5,49.3,29.92,NW,324,7.0,7.0,92,0.02,,---,0.03,VWS V13.01,2013-03-12 12:27:00,
2013-03-12 08:28:00,51.5,49.3,29.92,ESE,110,2.0,7.0,92,0.02,,---,0.03,VWS V13.01,2013-03-12 12:28:00,
2013-03-12 08:29:00,51.5,49.3,29.92,North,2,4.0,5.0,92,0.02,,---,0.03,VWS V13.01,2013-03-12 12:29:00,
2013-03-12 08:30:00,51.5,49.3,29.92,NW,321,5.0,5.0,92,0.02,,---,0.03,VWS V13.01,2013-03-12 12:30:00,
2013-03-12 08:31:00,51.5,49.3,29.92,NW,314,6.0,8.0,92,0.02,,---,0.03,VWS V13.01,2013-03-12 12:31:00,
2013-03-12 08:32:00,51.5,49.3,29.92,NW,312,0.0,7.0,92,0.02,,---,0.03,VWS V13.01,2013-03-12 12:32:00,
2013-03-12 08:33:00,51.4,49.2,29.92,NNW,330,2.0,5.0,92,0.02,,---,0.03,VWS V13.01,2013-03-12 12:33:00,
2013-03-12 08:34:00,51.4,49.2,29.92,SW,235,5.0,7.0,92,0.02,,---,0.03,VWS V13.01,2013-03-12 12:34:00,
2013-03-12 08:35:00,51.5,49.3,29.92,WNW,295,3.0,7.0,92,0.02,,---,0.03,VWS V13.01,2013-03-12 12:35:00,
2013-03-12 08:36:00,51.4,49.2,29.92,North,357,3.0,4.0,92,0.02,,---,0.03,VWS V13.01,2013-03-12 12:36:00,
2013-03-12 08:37:00,51.4,49.5,29.92,NW,313,3.0,7.0,93,0.02,,---,0.03,VWS V13.01,2013-03-12 12:37:00,
2013-03-12 08:38:00,51.4,49.5,29.92,ENE,62,6.0,6.0,93,0.02,,---,0.03,VWS V13.01,2013-03-12 12:38:00,
2013-03-12 08:39:00,51.4,49.5,29.92,WSW,257,2.0,6.0,93,0.02,,---,0.03,VWS V13.01,2013-03-12 12:39:00,
2013-03-12 08:40:00,51.4,49.5,29.92,WNW,289,2.0,6.0,93,0.02,,---,0.03,VWS V13.01,2013-03-12 12:40:00,
2013-03-12 08:41:00,51.4,49.5,29.92,NW,312,1.0,3.0,93,0.02,,---,0.03,VWS V13.01,2013-03-12 12:41:00,
2013-03-12 08:42:00,51.4,49.5,29.92,NNW,343,2.0,5.0,93,0.02,,---,0.03,VWS V13.01,2013-03-12 12:42:00,
2013-03-12 08:43:00,51.4,49.5,29.92,WNW,302,2.0,4.0,93,0.02,,---,0.03,VWS V13.01,2013-03-12 12:43:00,
2013-03-12 08:44:00,51.4,49.5,29.92,West,275,2.0,3.0,93,0.02,,---,0.03,VWS V13.01,2013-03-12 12:44:00,
2013-03-12 08:45:00,51.4,49.5,29.92,SSW,200,3.0,3.0,93,0.02,,---,0.03,VWS V13.01,2013-03-12 12:45:00,
2013-03-12 08:46:00,51.4,49.5,29.92,North,3,4.0,5.0,93,0.02,,---,0.03,VWS V13.01,2013-03-12 12:46:00,
2013-03-12 08:47:00,51.4,49.5,29.92,NNW,335,3.0,11.0,93,0.02,,---,0.03,VWS V13.01,2013-03-12 12:47:00,
2013-03-12 08:48:00,51.4,49.5,29.92,North,8,4.0,6.0,93,0.02,,---,0.03,VWS V13.01,2013-03-12 12:48:00,
2013-03-12 08:49:00,51.4,49.5,29.92,North,351,5.0,7.0,93,0.02,,---,0.03,VWS V13.01,2013-03-12 12:49:00,
2013-03-12 08:50:00,51.4,49.5,29.92,NE,39,7.0,7.0,93,0.02,,---,0.03,VWS V13.01,2013-03-12 12:50:00,
2013-03-12 08:51:00,51.4,49.5,29.92,NNE,33,2.0,6.0,93,0.02,,---,0.03,VWS V13.01,2013-03-12 12:51:00,
2013-03-12 08:52:00,51.4,49.5,29.91,North,359,2.0,4.0,93,0.02,,---,0.03,VWS V13.01,2013-03-12 12:52:00,
2013-03-12 08:53:00,51.5,49.5,29.92,SW,224,2.0,6.0,93,0.02,,---,0.03,VWS V13.01,2013-03-12 12:53:00,
2013-03-12 08:54:00,51.4,49.5,29.92,NNW,328,2.0,4.0,93,0.02,,---,0.03,VWS V13.01,2013-03-12 12:54:00,
2013-03-12 08:55:00,51.4,49.5,29.92,NW,325,2.0,3.0,93,0.02,,---,0.03,VWS V13.01,2013-03-12 12:55:00,
2013-03-12 08:56:00,51.4,49.5,29.92,WNW,283,4.0,4.0,93,0.02,,---,0.03,VWS V13.01,2013-03-12 12:56:00,
2013-03-12 08:57:00,51.4,49.5,29.92,NW,326,10.0,10.0,93,0.01,,---,0.03,VWS V13.01,2013-03-12 12:57:00,
2013-03-12 08:58:00,51.4,49.5,29.92,NNW,333,4.0,10.0,93,0.01,,---,0.03,VWS V13.01,2013-03-12 12:58:00,
2013-03-12 08:59:00,51.5,49.5,29.91,NW,310,1.0,6.0,93,0.01,,---,0.03,VWS V13.01,2013-03-12 12:59:00,
2013-03-12 09:00:00,51.5,49.5,29.91,NNW,333,3.0,6.0,93,0.01,,---,0.03,VWS V13.01,2013-03-12 13:00:00,
2013-03-12 09:01:00,51.5,49.5,29.91,WNW,299,3.0,7.0,93,0.01,,---,0.03,VWS V13.01,2013-03-12 13:01:00,
2013-03-12 09:02:00,51.5,49.5,29.91,NNE,14,5.0,5.0,93,0.01,,---,0.03,VWS V13.01,2013-03-12 13:02:00,
2013-03-12 09:03:00,51.5,49.5,29.91,NW,308,2.0,5.0,93,0.01,,---,0.03,VWS V13.01,2013-03-12 13:03:00,
2013-03-12 09:04:00,51.5,49.5,29.91,NNW,334,2.0,4.0,93,0.01,,---,0.03,VWS V13.01,2013-03-12 13:04:00,
2013-03-12 09:05:00,51.5,49.5,29.91,NNW,335,0.0,4.0,93,0.01,,---,0.03,VWS V13.01,2013-03-12 13:05:00,
2013-03-12 09:06:00,51.5,49.5,29.91,WNW,303,0.0,5.0,93,0.01,,---,0.04,VWS V13.01,2013-03-12 13:06:00,
2013-03-12 09:07:00,51.5,49.5,29.91,NW,326,1.0,6.0,93,0.01,,---,0.04,VWS V13.01,2013-03-12 13:07:00,
2013-03-12 09:08:00,51.5,49.5,29.91,NE,38,7.0,7.0,93,0.01,,---,0.04,VWS V13.01,2013-03-12 13:08:00,
2013-03-12 09:09:00,51.5,49.5,29.91,NNW,339,4.0,7.0,93,0.01,,---,0.04,VWS V13.01,2013-03-12 13:09:00,
2013-03-12 09:10:00,51.5,49.5,29.91,WNW,300,4.0,7.0,93,0.01,,---,0.04,VWS V13.01,2013-03-12 13:10:00,
2013-03-12 09:11:00,51.5,49.5,29.91,NW,324,4.0,5.0,93,0.01,,---,0.04,VWS V13.01,2013-03-12 13:11:00,
2013-03-12 09:12:00,51.5,49.5,29.91,NW,316,1.0,4.0,93,0.01,,---,0.04,VWS V13.01,2013-03-12 13:12:00,
2013-03-12 09:13:00,51.6,49.7,29.91,NW,326,3.0,4.0,93,0.01,,---,0.04,VWS V13.01,2013-03-12 13:13:00,
2013-03-12 09:14:00,51.6,49.7,29.91,WNW,283,3.0,6.0,93,0.01,,---,0.04,VWS V13.01,2013-03-12 13:14:00,
2013-03-12 09:15:00,51.6,49.7,29.91,North,353,5.0,6.0,93,0.01,,---,0.04,VWS V13.01,2013-03-12 13:15:00,
2013-03-12 09:16:00,51.6,49.7,29.91,WNW,298,7.0,10.0,93,0.01,,---,0.04,VWS V13.01,2013-03-12 13:16:00,
2013-03-12 09:17:00,51.7,49.8,29.91,WNW,301,3.0,7.0,93,0.01,,---,0.04,VWS V13.01,2013-03-12 13:17:00,
2013-03-12 09:18:00,51.7,49.8,29.91,WNW,302,2.0,3.0,93,0.01,,---,0.04,VWS V13.01,2013-03-12 13:18:00,
2013-03-12 09:19:00,51.7,49.8,29.91,North,358,1.0,5.0,93,0.01,,---,0.04,VWS V13.01,2013-03-12 13:19:00,
2013-03-12 09:20:00,51.7,49.8,29.91,WNW,289,5.0,5.0,93,0.01,,---,0.04,VWS V13.01,2013-03-12 13:20:00,
2013-03-12 09:21:00,51.7,49.8,29.91,NNW,331,1.0,6.0,93,0.01,,---,0.04,VWS V13.01,2013-03-12 13:21:00,
2013-03-12 09:22:00,51.8,49.8,29.91,NNE,27,2.0,4.0,93,0.01,,---,0.04,VWS V13.01,2013-03-12 13:22:00,
2013-03-12 09:23:00,51.8,49.8,29.91,NW,314,5.0,6.0,93,0.01,,---,0.04,VWS V13.01,2013-03-12 13:23:00,
2013-03-12 09:24:00,51.8,49.8,29.91,NW,313,2.0,5.0,93,0.01,,---,0.04,VWS V13.01,2013-03-12 13:24:00,
2013-03-12 09:25:00,51.8,49.8,29.91,WNW,287,3.0,5.0,93,0.01,,---,0.04,VWS V13.01,2013-03-12 13:25:00,
2013-03-12 09:26:00,51.9,49.9,29.91,North,358,3.0,6.0,93,0.01,,---,0.04,VWS V13.01,2013-03-12 13:26:00,
2013-03-12 09:27:00,51.9,49.9,29.91,NNW,344,2.0,4.0,93,0.01,,---,0.04,VWS V13.01,2013-03-12 13:27:00,
2013-03-12 09:28:00,51.9,49.9,29.91,NW,321,2.0,2.0,93,0.01,,---,0.04,VWS V13.01,2013-03-12 13:28:00,
2013-03-12 09:29:00,51.9,49.9,29.91,WNW,288,5.0,6.0,93,0.01,,---,0.04,VWS V13.01,2013-03-12 13:29:00,
2013-03-12 09:30:00,51.9,49.9,29.91,NW,307,6.0,6.0,93,0.01,,---,0.04,VWS V13.01,2013-03-12 13:30:00,
2013-03-12 09:31:00,52.0,50.0,29.90,NW,320,2.0,8.0,93,0.01,,---,0.04,VWS V13.01,2013-03-12 13:31:00,
2013-03-12 09:32:00,52.1,50.1,29.91,ENE,74,4.0,7.0,93,0.01,,---,0.04,VWS V13.01,2013-03-12 13:32:00,
2013-03-12 09:33:00,52.0,50.3,29.91,NW,307,4.0,9.0,94,0.01,,---,0.04,VWS V13.01,2013-03-12 13:33:00,
2013-03-12 09:34:00,52.1,50.4,29.90,NW,326,1.0,12.0,94,0.01,,---,0.04,VWS V13.01,2013-03-12 13:34:00,
2013-03-12 09:35:00,52.0,50.3,29.90,WNW,285,2.0,12.0,94,0.01,,---,0.04,VWS V13.01,2013-03-12 13:35:00,
2013-03-12 09:36:00,52.1,50.4,29.90,NW,310,2.0,8.0,94,0.01,,---,0.04,VWS V13.01,2013-03-12 13:36:00,
2013-03-12 09:37:00,52.1,50.1,29.90,NNW,331,4.0,10.0,93,0.01,,---,0.04,VWS V13.01,2013-03-12 13:37:00,
2013-03-12 09:38:00,52.1,50.1,29.90,NW,324,2.0,5.0,93,0.01,,---,0.04,VWS V13.01,2013-03-12 13:38:00,
2013-03-12 09:39:00,52.2,50.2,29.90,NNW,328,1.0,8.0,93,0.01,,---,0.04,VWS V13.01,2013-03-12 13:39:00,
2013-03-12 09:40:00,52.2,50.2,29.90,North,360,5.0,8.0,93,0.01,,---,0.04,VWS V13.01,2013-03-12 13:40:00,
2013-03-12 09:41:00,52.2,50.2,29.90,WNW,301,0.0,6.0,93,0.01,,---,0.04,VWS V13.01,2013-03-12 13:41:00,
2013-03-12 09:42:00,52.2,50.2,29.90,WNW,296,2.0,4.0,93,0.01,,---,0.04,VWS V13.01,2013-03-12 13:42:00,
2013-03-12 09:43:00,52.2,50.2,29.90,NNW,333,1.0,3.0,93,0.02,,---,0.05,VWS V13.01,2013-03-12 13:43:00,
2013-03-12 09:44:00,52.2,50.2,29.90,West,273,3.0,3.0,93,0.02,,---,0.05,VWS V13.01,2013-03-12 13:44:00,
2013-03-12 09:45:00,52.2,50.2,29.90,WNW,291,0.0,3.0,93,0.02,,---,0.05,VWS V13.01,2013-03-12 13:45:00,
2013-03-12 09:46:00,52.2,50.2,29.90,NW,312,2.0,6.0,93,0.02,,---,0.05,VWS V13.01,2013-03-12 13:46:00,
2013-03-12 09:47:00,52.2,50.2,29.89,West,263,5.0,5.0,93,0.02,,---,0.05,VWS V13.01,2013-03-12 13:47:00,
2013-03-12 09:48:00,52.2,50.2,29.89,NNW,328,5.0,6.0,93,0.02,,---,0.05,VWS V13.01,2013-03-12 13:48:00,
2013-03-12 09:49:00,52.2,50.2,29.89,WNW,301,1.0,5.0,93,0.02,,---,0.05,VWS V13.01,2013-03-12 13:49:00,
2013-03-12 09:50:00,52.2,50.2,29.89,NNW,348,2.0,5.0,93,0.02,,---,0.05,VWS V13.01,2013-03-12 13:50:00,
2013-03-12 09:51:00,52.2,50.2,29.89,NW,308,4.0,6.0,93,0.02,,---,0.05,VWS V13.01,2013-03-12 13:51:00,
2013-03-12 09:52:00,52.2,50.2,29.89,West,273,2.0,4.0,93,0.02,,---,0.05,VWS V13.01,2013-03-12 13:52:00,
2013-03-12 09:53:00,52.2,50.2,29.89,NNW,330,4.0,9.0,93,0.02,,---,0.05,VWS V13.01,2013-03-12 13:53:00,
2013-03-12 09:54:00,52.2,50.2,29.89,NW,316,4.0,10.0,93,0.02,,---,0.05,VWS V13.01,2013-03-12 13:54:00,
2013-03-12 09:55:00,52.2,50.2,29.89,NW,321,10.0,10.0,93,0.02,,---,0.05,VWS V13.01,2013-03-12 13:55:00,
2013-03-12 09:56:00,52.2,50.2,29.89,NNW,342,4.0,6.0,93,0.02,,---,0.05,VWS V13.01,2013-03-12 13:56:00,
2013-03-12 09:58:00,52.2,50.2,29.89,NNW,339,3.0,4.0,93,0.02,,---,0.05,VWS V13.01,2013-03-12 13:58:00,
2013-03-12 09:59:00,52.2,50.2,29.89,West,264,5.0,9.0,93,0.02,,---,0.05,VWS V13.01,2013-03-12 13:59:00,
2013-03-12 10:00:00,52.2,50.2,29.89,North,3,3.0,9.0,93,0.02,,---,0.05,VWS V13.01,2013-03-12 14:00:00,
2013-03-12 10:01:00,52.2,50.2,29.88,NW,309,3.0,9.0,93,0.02,,---,0.05,VWS V13.01,2013-03-12 14:01:00,
2013-03-12 10:02:00,52.2,50.2,29.88,NNW,336,4.0,10.0,93,0.02,,---,0.05,VWS V13.01,2013-03-12 14:02:00,
2013-03-12 10:03:00,52.2,50.2,29.88,North,355,4.0,6.0,93,0.02,,---,0.05,VWS V13.01,2013-03-12 14:03:00,
2013-03-12 10:04:00,52.2,50.2,29.88,NW,305,3.0,7.0,93,0.02,,---,0.05,VWS V13.01,2013-03-12 14:04:00,
2013-03-12 10:05:00,52.2,50.2,29.88,NW,320,1.0,7.0,93,0.02,,---,0.05,VWS V13.01,2013-03-12 14:05:00,
2013-03-12 10:06:00,52.2,50.2,29.88,NW,314,2.0,10.0,93,0.02,,---,0.05,VWS V13.01,2013-03-12 14:06:00,
2013-03-12 10:07:00,52.1,50.1,29.88,WNW,287,0.0,4.0,93,0.01,,---,0.05,VWS V13.01,2013-03-12 14:07:00,
2013-03-12 10:08:00,52.2,50.2,29.88,NW,326,4.0,9.0,93,0.01,,---,0.05,VWS V13.01,2013-03-12 14:08:00,
2013-03-12 10:09:00,52.1,50.1,29.88,NW,320,2.0,4.0,93,0.01,,---,0.05,VWS V13.01,2013-03-12 14:09:00,
2013-03-12 10:10:00,52.2,50.2,29.88,WNW,283,3.0,4.0,93,0.01,,---,0.05,VWS V13.01,2013-03-12 14:10:00,
2013-03-12 10:11:00,52.1,50.1,29.88,North,8,2.0,6.0,93,0.01,,---,0.05,VWS V13.01,2013-03-12 14:11:00,
2013-03-12 10:12:00,52.1,50.1,29.88,NNW,333,3.0,9.0,93,0.01,,---,0.05,VWS V13.01,2013-03-12 14:12:00,
2013-03-12 10:13:00,52.1,50.4,29.88,NW,317,4.0,6.0,94,0.01,,---,0.05,VWS V13.01,2013-03-12 14:13:00,
2013-03-12 10:14:00,52.1,50.4,29.88,NW,312,6.0,6.0,94,0.01,,---,0.05,VWS V13.01,2013-03-12 14:14:00,
2013-03-12 10:15:00,52.1,50.4,29.88,East,91,4.0,6.0,94,0.01,,---,0.05,VWS V13.01,2013-03-12 14:15:00,
2013-03-12 10:16:00,52.1,50.4,29.87,West,276,3.0,6.0,94,0.01,,---,0.05,VWS V13.01,2013-03-12 14:16:00,
2013-03-12 10:17:00,52.1,50.4,29.87,WNW,283,2.0,6.0,94,0.01,,---,0.05,VWS V13.01,2013-03-12 14:17:00,
2013-03-12 10:18:00,52.1,50.4,29.88,NW,310,4.0,11.0,94,0.01,,---,0.05,VWS V13.01,2013-03-12 14:18:00,
2013-03-12 10:19:00,52.2,50.5,29.87,NNW,332,5.0,5.0,94,0.01,,---,0.05,VWS V13.01,2013-03-12 14:19:00,
2013-03-12 10:20:00,52.1,50.4,29.87,WNW,299,3.0,5.0,94,0.01,,---,0.05,VWS V13.01,2013-03-12 14:20:00,
2013-03-12 10:21:00,52.1,50.4,29.88,North,6,3.0,10.0,94,0.01,,---,0.05,VWS V13.01,2013-03-12 14:21:00,
2013-03-12 10:22:00,52.1,50.4,29.88,East,79,1.0,7.0,94,0.01,,---,0.05,VWS V13.01,2013-03-12 14:22:00,
2013-03-12 10:23:00,52.1,50.4,29.88,WNW,293,1.0,12.0,94,0.01,,---,0.05,VWS V13.01,2013-03-12 14:23:00,
2013-03-12 10:24:00,52.1,50.4,29.88,West,278,2.0,5.0,94,0.01,,---,0.05,VWS V13.01,2013-03-12 14:24:00,
2013-03-12 10:25:00,52.1,50.4,29.88,WNW,298,4.0,5.0,94,0.01,,---,0.05,VWS V13.01,2013-03-12 14:25:00,
2013-03-12 10:26:00,52.1,50.4,29.88,NW,305,3.0,4.0,94,0.01,,---,0.05,VWS V13.01,2013-03-12 14:26:00,
2013-03-12 10:27:00,52.1,50.1,29.88,North,357,3.0,8.0,93,0.01,,---,0.05,VWS V13.01,2013-03-12 14:27:00,
2013-03-12 10:28:00,52.1,50.4,29.87,WNW,283,3.0,5.0,94,0.01,,---,0.05,VWS V13.01,2013-03-12 14:28:00,
2013-03-12 10:29:00,52.1,50.4,29.88,WSW,258,2.0,6.0,94,0.01,,---,0.05,VWS V13.01,2013-03-12 14:29:00,
2013-03-12 10:30:00,52.1,50.4,29.88,WNW,283,2.0,6.0,94,0.01,,---,0.05,VWS V13.01,2013-03-12 14:30:00,
2013-03-12 10:31:00,52.1,50.4,29.87,NNW,330,2.0,9.0,94,0.02,,---,0.06,VWS V13.01,2013-03-12 14:31:00,
2013-03-12 10:32:00,52.1,50.4,29.87,NW,318,6.0,6.0,94,0.02,,---,0.06,VWS V13.01,2013-03-12 14:32:00,
2013-03-12 10:33:00,52.1,50.4,29.87,NW,322,1.0,8.0,94,0.02,,---,0.06,VWS V13.01,2013-03-12 14:33:00,
2013-03-12 10:34:00,52.1,50.4,29.87,West,265,2.0,7.0,94,0.02,,---,0.06,VWS V13.01,2013-03-12 14:34:00,
2013-03-12 10:35:00,52.1,50.4,29.87,NNW,345,4.0,6.0,94,0.02,,---,0.06,VWS V13.01,2013-03-12 14:35:00,
2013-03-12 10:36:00,52.1,50.4,29.87,North,349,5.0,10.0,94,0.02,,---,0.06,VWS V13.01,2013-03-12 14:36:00,
2013-03-12 10:37:00,52.0,50.3,29.87,SW,223,2.0,7.0,94,0.02,,---,0.06,VWS V13.01,2013-03-12 14:37:00,
2013-03-12 10:38:00,52.0,50.3,29.87,WNW,294,2.0,6.0,94,0.02,,---,0.06,VWS V13.01,2013-03-12 14:38:00,
2013-03-12 10:39:00,52.0,50.3,29.87,West,264,3.0,4.0,94,0.02,,---,0.06,VWS V13.01,2013-03-12 14:39:00,
2013-03-12 10:40:00,52.0,50.3,29.87,NW,324,1.0,3.0,94,0.02,,---,0.06,VWS V13.01,2013-03-12 14:40:00,
2013-03-12 10:41:00,52.0,50.0,29.87,NW,310,2.0,4.0,93,0.02,,---,0.06,VWS V13.01,2013-03-12 14:41:00,
2013-03-12 10:42:00,52.0,50.0,29.87,West,263,2.0,6.0,93,0.02,,---,0.06,VWS V13.01,2013-03-12 14:42:00,
2013-03-12 10:43:00,52.0,50.0,29.87,NNW,344,9.0,10.0,93,0.02,,---,0.06,VWS V13.01,2013-03-12 14:43:00,
2013-03-12 10:44:00,52.0,50.0,29.87,WSW,247,3.0,9.0,93,0.01,,---,0.06,VWS V13.01,2013-03-12 14:44:00,
2013-03-12 10:45:00,52.1,50.1,29.87,NNW,329,3.0,9.0,93,0.02,,---,0.06,VWS V13.01,2013-03-12 14:45:00,
2013-03-12 10:46:00,52.0,50.0,29.87,ENE,57,3.0,3.0,93,0.01,,---,0.06,VWS V13.01,2013-03-12 14:46:00,
2013-03-12 10:47:00,52.0,50.0,29.87,ESE,114,2.0,5.0,93,0.01,,---,0.06,VWS V13.01,2013-03-12 14:47:00,
2013-03-12 10:48:00,52.1,50.1,29.87,SE,130,2.0,6.0,93,0.01,,---,0.06,VWS V13.01,2013-03-12 14:48:00,
2013-03-12 10:49:00,52.1,50.1,29.87,NW,316,3.0,3.0,93,0.01,,---,0.06,VWS V13.01,2013-03-12 14:49:00,
2013-03-12 10:50:00,52.1,50.4,29.87,West,275,1.0,2.0,94,0.01,,---,0.06,VWS V13.01,2013-03-12 14:50:00,
2013-03-12 10:51:00,52.1,50.4,29.87,North,8,2.0,6.0,94,0.01,,---,0.06,VWS V13.01,2013-03-12 14:51:00,
2013-03-12 10:52:00,52.1,50.4,29.87,NNW,328,2.0,6.0,94,0.01,,---,0.06,VWS V13.01,2013-03-12 14:52:00,
2013-03-12 10:53:00,52.1,50.4,29.86,North,11,2.0,4.0,94,0.01,,---,0.06,VWS V13.01,2013-03-12 14:53:00,
2013-03-12 10:54:00,52.1,50.4,29.86,North,4,2.0,3.0,94,0.01,,---,0.06,VWS V13.01,2013-03-12 14:54:00,
2013-03-12 10:55:00,52.1,50.4,29.86,NW,321,1.0,3.0,94,0.01,,---,0.06,VWS V13.01,2013-03-12 14:55:00,
2013-03-12 10:56:00,52.1,50.4,29.86,WNW,302,2.0,10.0,94,0.01,,---,0.06,VWS V13.01,2013-03-12 14:56:00,
2013-03-12 10:57:00,52.1,50.4,29.86,North,11,7.0,7.0,94,0.01,,---,0.06,VWS V13.01,2013-03-12 14:57:00,
2013-03-12 10:58:00,52.1,50.4,29.86,North,349,1.0,7.0,94,0.01,,---,0.06,VWS V13.01,2013-03-12 14:58:00,
2013-03-12 10:59:00,52.1,50.4,29.86,NW,324,4.0,4.0,94,0.01,,---,0.06,VWS V13.01,2013-03-12 14:59:00,
2013-03-12 11:00:00,52.1,50.4,29.86,NNW,347,2.0,4.0,94,0.01,,---,0.06,VWS V13.01,2013-03-12 15:00:00,
2013-03-12 11:01:00,52.1,50.4,29.86,NW,324,2.0,6.0,94,0.01,,---,0.06,VWS V13.01,2013-03-12 15:01:00,
2013-03-12 11:02:00,52.1,50.4,29.86,WNW,301,4.0,6.0,94,0.01,,---,0.06,VWS V13.01,2013-03-12 15:02:00,
2013-03-12 11:03:00,52.1,50.4,29.85,ENE,74,9.0,10.0,94,0.01,,---,0.06,VWS V13.01,2013-03-12 15:03:00,
2013-03-12 11:04:00,52.1,50.4,29.86,NNW,332,2.0,9.0,94,0.02,,---,0.07,VWS V13.01,2013-03-12 15:04:00,
2013-03-12 11:05:00,52.1,50.4,29.86,NW,312,2.0,9.0,94,0.01,,---,0.07,VWS V13.01,2013-03-12 15:05:00,
2013-03-12 11:06:00,52.1,50.4,29.85,NW,324,6.0,6.0,94,0.02,,---,0.07,VWS V13.01,2013-03-12 15:06:00,
2013-03-12 11:07:00,52.1,50.4,29.85,WNW,299,2.0,6.0,94,0.02,,---,0.07,VWS V13.01,2013-03-12 15:07:00,
2013-03-12 11:08:00,52.1,50.4,29.85,NW,316,2.0,6.0,94,0.02,,---,0.07,VWS V13.01,2013-03-12 15:08:00,
2013-03-12 11:09:00,52.1,50.4,29.85,NNE,33,3.0,5.0,94,0.02,,---,0.07,VWS V13.01,2013-03-12 15:09:00,
2013-03-12 11:10:00,52.1,50.4,29.85,NW,324,5.0,5.0,94,0.02,,---,0.07,VWS V13.01,2013-03-12 15:10:00,
2013-03-12 11:11:00,52.1,50.1,29.85,WNW,296,3.0,4.0,93,0.02,,---,0.07,VWS V13.01,2013-03-12 15:11:00,
2013-03-12 11:12:00,52.0,50.0,29.85,WNW,295,1.0,5.0,93,0.02,,---,0.07,VWS V13.01,2013-03-12 15:12:00,
2013-03-12 11:13:00,52.0,50.0,29.85,NW,312,0.0,4.0,93,0.02,,---,0.07,VWS V13.01,2013-03-12 15:13:00,
2013-03-12 11:14:00,52.0,50.0,29.85,SSE,147,3.0,3.0,93,0.02,,---,0.07,VWS V13.01,2013-03-12 15:14:00,
2013-03-12 11:15:00,52.0,50.0,29.85,NW,317,2.0,2.0,93,0.02,,---,0.07,VWS V13.01,2013-03-12 15:15:00,
2013-03-12 11:16:00,52.0,50.0,29.85,NNW,337,5.0,7.0,93,0.02,,---,0.07,VWS V13.01,2013-03-12 15:16:00,
2013-03-12 11:17:00,52.0,50.0,29.85,NNW,339,2.0,5.0,93,0.02,,---,0.07,VWS V13.01,2013-03-12 15:17:00,
2013-03-12 11:18:00,51.9,49.9,29.85,NE,54,2.0,3.0,93,0.02,,---,0.07,VWS V13.01,2013-03-12 15:18:00,
2013-03-12 11:19:00,51.9,49.9,29.85,WNW,303,4.0,8.0,93,0.02,,---,0.07,VWS V13.01,2013-03-12 15:19:00,
2013-03-12 11:20:00,51.9,49.9,29.85,NW,326,8.0,8.0,93,0.02,,---,0.07,VWS V13.01,2013-03-12 15:20:00,
2013-03-12 11:21:00,51.9,49.9,29.85,NW,305,2.0,6.0,93,0.02,,---,0.07,VWS V13.01,2013-03-12 15:21:00,
2013-03-12 11:22:00,51.9,49.9,29.85,NW,324,3.0,6.0,93,0.02,,---,0.07,VWS V13.01,2013-03-12 15:22:00,
2013-03-12 11:23:00,51.9,50.2,29.85,NW,322,3.0,4.0,94,0.02,,---,0.07,VWS V13.01,2013-03-12 15:23:00,
2013-03-12 11:24:00,51.9,50.2,29.85,North,353,3.0,3.0,94,0.02,,---,0.07,VWS V13.01,2013-03-12 15:24:00,
2013-03-12 11:25:00,51.9,50.2,29.85,ESE,118,0.0,3.0,94,0.02,,---,0.07,VWS V13.01,2013-03-12 15:25:00,
2013-03-12 11:26:00,51.9,50.2,29.85,North,360,3.0,5.0,94,0.02,,---,0.07,VWS V13.01,2013-03-12 15:26:00,
2013-03-12 11:27:00,51.9,50.2,29.85,NW,320,4.0,4.0,94,0.02,,---,0.07,VWS V13.01,2013-03-12 15:27:00,
2013-03-12 11:28:00,51.9,50.2,29.85,NNW,337,3.0,4.0,94,0.02,,---,0.07,VWS V13.01,2013-03-12 15:28:00,
2013-03-12 11:29:00,51.9,50.2,29.84,WSW,252,5.0,6.0,94,0.02,,---,0.07,VWS V13.01,2013-03-12 15:29:00,
2013-03-12 11:30:00,51.9,50.2,29.84,NW,318,4.0,6.0,94,0.02,,---,0.07,VWS V13.01,2013-03-12 15:30:00,
2013-03-12 11:31:00,52.0,50.3,29.84,NW,318,2.0,7.0,94,0.01,,---,0.07,VWS V13.01,2013-03-12 15:31:00,
2013-03-12 11:32:00,52.0,50.3,29.84,NW,305,3.0,4.0,94,0.01,,---,0.07,VWS V13.01,2013-03-12 15:32:00,
2013-03-12 11:33:00,52.0,50.3,29.85,WNW,300,4.0,5.0,94,0.01,,---,0.07,VWS V13.01,2013-03-12 15:33:00,
2013-03-12 11:34:00,52.0,50.3,29.84,NNW,333,5.0,10.0,94,0.01,,---,0.07,VWS V13.01,2013-03-12 15:34:00,
2013-03-12 11:35:00,52.0,50.3,29.84,North,352,6.0,10.0,94,0.01,,---,0.07,VWS V13.01,2013-03-12 15:35:00,
2013-03-12 11:36:00,52.1,50.4,29.84,NNE,18,4.0,10.0,94,0.01,,---,0.07,VWS V13.01,2013-03-12 15:36:00,
2013-03-12 11:37:00,52.0,50.3,29.84,NNW,329,1.0,6.0,94,0.01,,---,0.07,VWS V13.01,2013-03-12 15:37:00,
2013-03-12 11:38:00,52.1,50.4,29.84,North,356,3.0,6.0,94,0.01,,---,0.07,VWS V13.01,2013-03-12 15:38:00,
2013-03-12 11:39:00,52.1,50.4,29.84,NW,325,5.0,5.0,94,0.01,,---,0.07,VWS V13.01,2013-03-12 15:39:00,
2013-03-12 11:40:00,52.1,50.4,29.84,North,349,3.0,5.0,94,0.01,,---,0.07,VWS V13.01,2013-03-12 15:40:00,
2013-03-12 11:41:00,52.1,50.4,29.84,NNW,344,4.0,11.0,94,0.01,,---,0.07,VWS V13.01,2013-03-12 15:41:00,
2013-03-12 11:42:00,52.1,50.4,29.84,WNW,291,1.0,6.0,94,0.01,,---,0.07,VWS V13.01,2013-03-12 15:42:00,
2013-03-12 11:43:00,52.1,50.4,29.84,NNW,332,2.0,5.0,94,0.01,,---,0.07,VWS V13.01,2013-03-12 15:43:00,
2013-03-12 11:44:00,52.1,50.4,29.84,NW,308,3.0,3.0,94,0.02,,---,0.08,VWS V13.01,2013-03-12 15:44:00,
2013-03-12 11:45:00,52.1,50.4,29.84,West,271,2.0,3.0,94,0.01,,---,0.08,VWS V13.01,2013-03-12 15:45:00,
2013-03-12 11:46:00,52.1,50.4,29.84,North,11,4.0,10.0,94,0.02,,---,0.08,VWS V13.01,2013-03-12 15:46:00,
2013-03-12 11:47:00,52.1,50.4,29.83,NNE,25,4.0,10.0,94,0.02,,---,0.08,VWS V13.01,2013-03-12 15:47:00,
2013-03-12 11:48:00,52.2,50.5,29.83,NNW,341,5.0,6.0,94,0.02,,---,0.08,VWS V13.01,2013-03-12 15:48:00,
2013-03-12 11:49:00,52.2,50.5,29.83,NNW,328,6.0,7.0,94,0.02,,---,0.08,VWS V13.01,2013-03-12 15:49:00,
2013-03-12 11:50:00,52.2,50.5,29.83,WNW,303,7.0,7.0,94,0.02,,---,0.08,VWS V13.01,2013-03-12 15:50:00,
2013-03-12 11:51:00,52.2,50.5,29.83,NNW,340,4.0,4.0,94,0.03,,---,0.09,VWS V13.01,2013-03-12 15:51:00,
2013-03-12 11:52:00,52.2,50.5,29.83,WNW,296,1.0,6.0,94,0.03,,---,0.09,VWS V13.01,2013-03-12 15:52:00,
2013-03-12 11:53:00,52.3,50.6,29.83,WNW,303,3.0,6.0,94,0.03,,---,0.09,VWS V13.01,2013-03-12 15:53:00,
2013-03-12 11:54:00,52.3,50.6,29.84,NW,326,3.0,6.0,94,0.03,,---,0.09,VWS V13.01,2013-03-12 15:54:00,
2013-03-12 11:55:00,52.3,50.6,29.84,WNW,288,2.0,6.0,94,0.03,,---,0.09,VWS V13.01,2013-03-12 15:55:00,
2013-03-12 11:56:00,52.3,50.6,29.83,WNW,300,4.0,6.0,94,0.03,,---,0.09,VWS V13.01,2013-03-12 15:56:00,
2013-03-12 11:57:00,52.3,50.6,29.83,NNW,342,4.0,5.0,94,0.03,,---,0.09,VWS V13.01,2013-03-12 15:57:00,
2013-03-12 11:58:00,52.4,50.7,29.83,NW,308,3.0,9.0,94,0.03,,---,0.09,VWS V13.01,2013-03-12 15:58:00,
2013-03-12 11:59:00,52.4,50.7,29.83,NW,310,4.0,13.0,94,0.03,,---,0.09,VWS V13.01,2013-03-12 15:59:00,
2013-03-12 12:00:00,52.4,50.7,29.83,WNW,301,12.0,13.0,94,0.03,,---,0.09,VWS V13.01,2013-03-12 16:00:00,
2013-03-12 12:01:00,52.4,50.7,29.83,NNW,339,10.0,12.0,94,0.03,,---,0.09,VWS V13.01,2013-03-12 16:01:00,
2013-03-12 12:02:00,52.5,50.8,29.83,North,349,3.0,10.0,94,0.03,,---,0.09,VWS V13.01,2013-03-12 16:02:00,
2013-03-12 12:03:00,52.6,50.9,29.83,NW,308,6.0,7.0,94,0.03,,---,0.09,VWS V13.01,2013-03-12 16:03:00,
2013-03-12 12:04:00,52.6,50.9,29.83,WNW,283,1.0,10.0,94,0.03,,---,0.09,VWS V13.01,2013-03-12 16:04:00,
2013-03-12 12:05:00,52.6,50.9,29.83,West,281,5.0,10.0,94,0.03,,---,0.09,VWS V13.01,2013-03-12 16:05:00,
2013-03-12 12:06:00,52.6,50.9,29.83,NW,306,6.0,11.0,94,0.02,,---,0.09,VWS V13.01,2013-03-12 16:06:00,
2013-03-12 12:07:00,52.6,50.9,29.83,NW,324,5.0,12.0,94,0.02,,---,0.09,VWS V13.01,2013-03-12 16:07:00,
2013-03-12 12:08:00,52.6,50.9,29.83,WNW,298,2.0,6.0,94,0.02,,---,0.09,VWS V13.01,2013-03-12 16:08:00,
2013-03-12 12:09:00,52.6,50.9,29.83,NW,322,4.0,7.0,94,0.03,,---,0.10,VWS V13.01,2013-03-12 16:09:00,
2013-03-12 12:10:00,52.6,50.9,29.83,ENE,74,4.0,7.0,94,0.02,,---,0.10,VWS V13.01,2013-03-12 16:10:00,
2013-03-12 12:11:00,52.6,50.9,29.83,ENE,58,6.0,7.0,94,0.03,,---,0.10,VWS V13.01,2013-03-12 16:11:00,
2013-03-12 12:12:00,52.6,50.9,29.84,NNW,335,2.0,9.0,94,0.04,,---,0.11,VWS V13.01,2013-03-12 16:12:00,
2013-03-12 12:13:00,52.6,50.9,29.83,NE,37,3.0,6.0,94,0.04,,---,0.11,VWS V13.01,2013-03-12 16:13:00,
2013-03-12 12:14:00,52.6,50.9,29.83,North,4,10.0,13.0,94,0.04,,---,0.11,VWS V13.01,2013-03-12 16:14:00,
2013-03-12 12:15:00,52.5,50.8,29.83,NW,310,9.0,9.0,94,0.04,,---,0.11,VWS V13.01,2013-03-12 16:15:00,
2013-03-12 12:16:00,52.5,50.8,29.83,NW,314,6.0,10.0,94,0.04,,---,0.11,VWS V13.01,2013-03-12 16:16:00,
2013-03-12 12:17:00,52.5,50.8,29.83,NNE,31,2.0,10.0,94,0.04,,---,0.11,VWS V13.01,2013-03-12 16:17:00,
2013-03-12 12:18:00,52.4,50.7,29.83,WNW,283,3.0,10.0,94,0.04,,---,0.11,VWS V13.01,2013-03-12 16:18:00,
2013-03-12 12:19:00,52.4,50.7,29.83,NW,317,4.0,12.0,94,0.04,,---,0.11,VWS V13.01,2013-03-12 16:19:00,
2013-03-12 12:20:00,52.4,50.7,29.83,NNW,341,1.0,12.0,94,0.04,,---,0.11,VWS V13.01,2013-03-12 16:20:00,
2013-03-12 12:21:00,52.4,50.7,29.83,WSW,255,6.0,10.0,94,0.04,,---,0.11,VWS V13.01,2013-03-12 16:21:00,
2013-03-12 12:22:00,52.3,50.6,29.83,WNW,301,2.0,10.0,94,0.04,,---,0.11,VWS V13.01,2013-03-12 16:22:00,
2013-03-12 12:23:00,52.3,50.6,29.83,NW,308,2.0,9.0,94,0.05,,---,0.12,VWS V13.01,2013-03-12 16:23:00,
2013-03-12 12:24:00,52.3,50.6,29.83,West,281,4.0,10.0,94,0.05,,---,0.12,VWS V13.01,2013-03-12 16:24:00,
2013-03-12 12:25:00,52.3,50.6,29.83,West,275,2.0,10.0,94,0.05,,---,0.12,VWS V13.01,2013-03-12 16:25:00,
2013-03-12 12:26:00,52.2,50.5,29.83,NNW,343,5.0,7.0,94,0.05,,---,0.12,VWS V13.01,2013-03-12 16:26:00,
2013-03-12 12:27:00,52.2,50.5,29.83,NNW,343,6.0,10.0,94,0.05,,---,0.12,VWS V13.01,2013-03-12 16:27:00,
2013-03-12 12:28:00,52.1,50.4,29.83,NE,46,3.0,12.0,94,0.05,,---,0.12,VWS V13.01,2013-03-12 16:28:00,
2013-03-12 12:29:00,52.2,50.5,29.82,WNW,291,2.0,4.0,94,0.06,,---,0.13,VWS V13.01,2013-03-12 16:29:00,
2013-03-12 12:30:00,52.1,50.4,29.82,West,277,2.0,4.0,94,0.05,,---,0.12,VWS V13.01,2013-03-12 16:30:00,
2013-03-12 12:31:00,52.1,50.4,29.82,North,356,5.0,6.0,94,0.06,,---,0.13,VWS V13.01,2013-03-12 16:31:00,
2013-03-12 12:32:00,52.1,50.4,29.82,NW,307,3.0,12.0,94,0.06,,---,0.13,VWS V13.01,2013-03-12 16:32:00,
2013-03-12 12:33:00,52.1,50.4,29.82,NNW,335,3.0,5.0,94,0.06,,---,0.13,VWS V13.01,2013-03-12 16:33:00,
2013-03-12 12:34:00,52.1,50.4,29.82,NW,315,3.0,4.0,94,0.06,,---,0.13,VWS V13.01,2013-03-12 16:34:00,
2013-03-12 12:35:00,52.1,50.4,29.82,North,11,3.0,3.0,94,0.06,,---,0.13,VWS V13.01,2013-03-12 16:35:00,
2013-03-12 12:36:00,52.0,50.3,29.82,NW,325,2.0,6.0,94,0.06,,---,0.13,VWS V13.01,2013-03-12 16:36:00,
2013-03-12 12:37:00,52.0,50.3,29.82,NW,310,4.0,12.0,94,0.06,,---,0.13,VWS V13.01,2013-03-12 16:37:00,
2013-03-12 12:38:00,51.9,50.2,29.82,NW,317,1.0,5.0,94,0.06,,---,0.13,VWS V13.01,2013-03-12 16:38:00,
2013-03-12 12:39:00,51.9,50.2,29.82,NW,316,3.0,12.0,94,0.06,,---,0.13,VWS V13.01,2013-03-12 16:39:00,
2013-03-12 12:40:00,51.9,50.2,29.82,NW,321,11.0,12.0,94,0.06,,---,0.13,VWS V13.01,2013-03-12 16:40:00,
2013-03-12 12:41:00,51.9,50.2,29.82,NW,310,5.0,9.0,94,0.06,,---,0.13,VWS V13.01,2013-03-12 16:41:00,
2013-03-12 12:42:00,51.9,50.2,29.82,WNW,291,3.0,12.0,94,0.07,,---,0.14,VWS V13.01,2013-03-12 16:42:00,
2013-03-12 12:43:00,51.9,50.2,29.81,NW,321,4.0,4.0,94,0.07,,---,0.14,VWS V13.01,2013-03-12 16:43:00,
2013-03-12 12:44:00,51.9,50.2,29.81,NNW,337,4.0,6.0,94,0.07,,---,0.14,VWS V13.01,2013-03-12 16:44:00,
2013-03-12 12:45:00,51.9,50.2,29.81,WNW,292,5.0,6.0,94,0.07,,---,0.14,VWS V13.01,2013-03-12 16:45:00,
2013-03-12 12:46:00,51.9,50.2,29.81,NNW,330,3.0,5.0,94,0.07,,---,0.15,VWS V13.01,2013-03-12 16:46:00,
2013-03-12 12:47:00,51.9,50.2,29.81,NW,314,6.0,7.0,94,0.07,,---,0.15,VWS V13.01,2013-03-12 16:47:00,
2013-03-12 12:48:00,51.8,50.1,29.81,WNW,295,3.0,7.0,94,0.07,,---,0.15,VWS V13.01,2013-03-12 16:48:00,
2013-03-12 12:49:00,51.8,50.1,29.80,WNW,285,11.0,11.0,94,0.07,,---,0.15,VWS V13.01,2013-03-12 16:49:00,
2013-03-12 12:50:00,51.8,50.1,29.80,NW,324,5.0,5.0,94,0.07,,---,0.15,VWS V13.01,2013-03-12 16:50:00,
2013-03-12 12:51:00,51.8,50.1,29.80,WNW,301,2.0,6.0,94,0.07,,---,0.15,VWS V13.01,2013-03-12 16:51:00,
2013-03-12 12:52:00,51.8,50.1,29.80,NNW,348,2.0,6.0,94,0.06,,---,0.15,VWS V13.01,2013-03-12 16:52:00,
2013-03-12 12:53:00,51.7,50.0,29.80,SW,216,2.0,4.0,94,0.06,,---,0.15,VWS V13.01,2013-03-12 16:53:00,
2013-03-12 12:54:00,51.7,50.0,29.80,NNW,330,3.0,8.0,94,0.06,,---,0.15,VWS V13.01,2013-03-12 16:54:00,
2013-03-12 12:55:00,51.7,50.0,29.80,NNW,333,8.0,8.0,94,0.06,,---,0.15,VWS V13.01,2013-03-12 16:55:00,
2013-03-12 12:56:00,51.6,49.9,29.80,NW,315,1.0,6.0,94,0.06,,---,0.15,VWS V13.01,2013-03-12 16:56:00,
2013-03-12 12:57:00,51.6,49.9,29.80,West,268,2.0,3.0,94,0.06,,---,0.15,VWS V13.01,2013-03-12 16:57:00,
2013-03-12 12:58:00,51.6,49.9,29.80,WNW,303,1.0,7.0,94,0.06,,---,0.15,VWS V13.01,2013-03-12 16:58:00,
2013-03-12 12:59:00,51.5,49.8,29.80,NW,311,3.0,11.0,94,0.06,,---,0.15,VWS V13.01,2013-03-12 16:59:00,
2013-03-12 13:00:00,51.5,49.8,29.80,NNE,16,4.0,11.0,94,0.06,,---,0.15,VWS V13.01,2013-03-12 17:00:00,
2013-03-12 13:01:00,51.5,49.8,29.80,WNW,288,7.0,7.0,94,0.06,,---,0.15,VWS V13.01,2013-03-12 17:01:00,
2013-03-12 13:02:00,51.5,49.8,29.80,NNW,347,2.0,10.0,94,0.06,,---,0.15,VWS V13.01,2013-03-12 17:02:00,
2013-03-12 13:03:00,51.5,49.8,29.80,WNW,298,4.0,6.0,94,0.06,,---,0.15,VWS V13.01,2013-03-12 17:03:00,
2013-03-12 13:04:00,51.5,49.8,29.80,NW,320,2.0,5.0,94,0.06,,---,0.15,VWS V13.01,2013-03-12 17:04:00,
2013-03-12 13:05:00,51.4,49.7,29.80,North,358,3.0,5.0,94,0.06,,---,0.15,VWS V13.01,2013-03-12 17:05:00,
2013-03-12 13:06:00,51.4,49.7,29.80,NW,306,0.0,9.0,94,0.07,,---,0.16,VWS V13.01,2013-03-12 17:06:00,
2013-03-12 13:07:00,51.5,49.8,29.80,NW,322,4.0,9.0,94,0.07,,---,0.16,VWS V13.01,2013-03-12 17:07:00,
2013-03-12 13:08:00,51.5,49.8,29.80,NW,314,6.0,11.0,94,0.07,,---,0.16,VWS V13.01,2013-03-12 17:08:00,
2013-03-12 13:09:00,51.5,50.1,29.80,NW,310,5.0,6.0,95,0.07,,---,0.16,VWS V13.01,2013-03-12 17:09:00,
2013-03-12 13:10:00,51.5,50.1,29.80,SSW,202,3.0,6.0,95,0.07,,---,0.16,VWS V13.01,2013-03-12 17:10:00,
2013-03-12 13:11:00,51.5,50.1,29.79,WNW,303,5.0,9.0,95,0.07,,---,0.17,VWS V13.01,2013-03-12 17:11:00,
2013-03-12 13:12:00,51.5,50.1,29.79,WNW,303,5.0,7.0,95,0.07,,---,0.17,VWS V13.01,2013-03-12 17:12:00,
2013-03-12 13:13:00,51.6,50.2,29.79,WNW,284,3.0,5.0,95,0.06,,---,0.17,VWS V13.01,2013-03-12 17:13:00,
2013-03-12 13:14:00,51.6,50.2,29.79,North,353,6.0,9.0,95,0.06,,---,0.17,VWS V13.01,2013-03-12 17:14:00,
2013-03-12 13:15:00,51.6,50.2,29.79,NNW,330,9.0,9.0,95,0.06,,---,0.17,VWS V13.01,2013-03-12 17:15:00,
2013-03-12 13:16:00,51.7,50.3,29.79,NW,326,7.0,11.0,95,0.06,,---,0.17,VWS V13.01,2013-03-12 17:16:00,
2013-03-12 13:17:00,51.7,50.3,29.79,NW,326,7.0,10.0,95,0.06,,---,0.17,VWS V13.01,2013-03-12 17:17:00,
2013-03-12 13:18:00,51.7,50.3,29.79,North,353,4.0,9.0,95,0.07,,---,0.18,VWS V13.01,2013-03-12 17:18:00,
2013-03-12 13:19:00,51.7,50.3,29.78,East,101,7.0,13.0,95,0.07,,---,0.18,VWS V13.01,2013-03-12 17:19:00,
2013-03-12 13:20:00,51.7,50.3,29.78,SSE,161,5.0,13.0,95,0.07,,---,0.18,VWS V13.01,2013-03-12 17:20:00,
2013-03-12 13:21:00,51.7,50.3,29.78,NW,310,4.0,12.0,95,0.07,,---,0.18,VWS V13.01,2013-03-12 17:21:00,
2013-03-12 13:22:00,51.8,50.4,29.78,NW,326,5.0,10.0,95,0.08,,---,0.19,VWS V13.01,2013-03-12 17:22:00,
2013-03-12 13:23:00,51.8,50.4,29.78,WSW,247,1.0,7.0,95,0.08,,---,0.19,VWS V13.01,2013-03-12 17:23:00,
2013-03-12 13:24:00,51.8,50.4,29.78,NW,310,4.0,10.0,95,0.07,,---,0.19,VWS V13.01,2013-03-12 17:24:00,
2013-03-12 13:25:00,51.8,50.4,29.78,North,349,6.0,10.0,95,0.08,,---,0.19,VWS V13.01,2013-03-12 17:25:00,
2013-03-12 13:26:00,51.9,50.5,29.78,WNW,289,3.0,11.0,95,0.07,,---,0.19,VWS V13.01,2013-03-12 17:26:00,
2013-03-12 13:27:00,51.9,50.5,29.78,North,8,10.0,14.0,95,0.07,,---,0.19,VWS V13.01,2013-03-12 17:27:00,
2013-03-12 13:28:00,51.9,50.5,29.78,NNW,339,5.0,11.0,95,0.07,,---,0.19,VWS V13.01,2013-03-12 17:28:00,
2013-03-12 13:29:00,51.9,50.5,29.77,NW,310,1.0,5.0,95,0.07,,---,0.19,VWS V13.01,2013-03-12 17:29:00,
2013-03-12 13:30:00,51.9,50.5,29.77,WNW,295,2.0,5.0,95,0.07,,---,0.19,VWS V13.01,2013-03-12 17:30:00,
2013-03-12 13:31:00,52.0,50.6,29.77,WNW,301,3.0,6.0,95,0.06,,---,0.19,VWS V13.01,2013-03-12 17:31:00,
2013-03-12 13:32:00,52.0,50.6,29.77,North,351,2.0,6.0,95,0.06,,---,0.19,VWS V13.01,2013-03-12 17:32:00,
2013-03-12 13:33:00,52.1,50.7,29.77,North,356,4.0,10.0,95,0.06,,---,0.19,VWS V13.01,2013-03-12 17:33:00,
2013-03-12 13:34:00,52.1,50.7,29.77,SSW,210,2.0,11.0,95,0.06,,---,0.19,VWS V13.01,2013-03-12 17:34:00,
2013-03-12 13:35:00,52.1,50.7,29.77,North,359,4.0,11.0,95,0.06,,---,0.19,VWS V13.01,2013-03-12 17:35:00,
2013-03-12 13:36:00,52.1,50.7,29.76,NNW,333,4.0,9.0,95,0.06,,---,0.19,VWS V13.01,2013-03-12 17:36:00,
2013-03-12 13:37:00,52.2,50.8,29.76,NW,314,2.0,11.0,95,0.06,,---,0.19,VWS V13.01,2013-03-12 17:37:00,
2013-03-12 13:38:00,52.2,50.8,29.76,NNE,23,5.0,6.0,95,0.07,,---,0.20,VWS V13.01,2013-03-12 17:38:00,
2013-03-12 13:39:00,52.2,50.8,29.76,NNE,33,11.0,13.0,95,0.07,,---,0.20,VWS V13.01,2013-03-12 17:39:00,
2013-03-12 13:40:00,52.2,50.8,29.76,NW,313,4.0,7.0,95,0.07,,---,0.20,VWS V13.01,2013-03-12 17:40:00,
2013-03-12 13:41:00,52.1,50.7,29.76,NNW,341,6.0,14.0,95,0.07,,---,0.20,VWS V13.01,2013-03-12 17:41:00,
2013-03-12 13:42:00,52.2,50.8,29.76,NNW,348,1.0,6.0,95,0.07,,---,0.20,VWS V13.01,2013-03-12 17:42:00,
2013-03-12 13:43:00,52.2,50.8,29.76,WNW,298,8.0,9.0,95,0.06,,---,0.20,VWS V13.01,2013-03-12 17:43:00,
2013-03-12 13:45:00,52.1,50.7,29.76,NW,311,4.0,8.0,95,0.06,,---,0.20,VWS V13.01,2013-03-12 17:45:00,
2013-03-12 13:46:00,52.2,50.8,29.76,NNW,330,2.0,6.0,95,0.07,,---,0.21,VWS V13.01,2013-03-12 17:46:00,
2013-03-12 13:47:00,52.1,50.7,29.76,NW,326,9.0,9.0,95,0.06,,---,0.21,VWS V13.01,2013-03-12 17:47:00,
2013-03-12 13:49:00,52.1,50.7,29.76,West,266,7.0,12.0,95,0.06,,---,0.21,VWS V13.01,2013-03-12 17:49:00,
2013-03-12 13:50:00,52.1,50.7,29.76,NW,310,5.0,12.0,95,0.06,,---,0.21,VWS V13.01,2013-03-12 17:50:00,
2013-03-12 13:51:00,52.1,50.7,29.76,NW,322,15.0,15.0,95,0.06,,---,0.21,VWS V13.01,2013-03-12 17:51:00,
2013-03-12 13:52:00,52.1,50.7,29.76,NNW,345,4.0,15.0,95,0.06,,---,0.21,VWS V13.01,2013-03-12 17:52:00,
2013-03-12 13:53:00,52.1,50.7,29.76,NNW,333,5.0,5.0,95,0.07,,---,0.22,VWS V13.01,2013-03-12 17:53:00,
2013-03-12 13:54:00,52.2,50.8,29.76,NNW,342,6.0,11.0,95,0.07,,---,0.22,VWS V13.01,2013-03-12 17:54:00,
2013-03-12 13:55:00,52.2,50.8,29.76,NW,316,11.0,11.0,95,0.07,,---,0.22,VWS V13.01,2013-03-12 17:55:00,
2013-03-12 13:56:00,52.2,50.8,29.76,NW,308,3.0,5.0,95,0.08,,---,0.23,VWS V13.01,2013-03-12 17:56:00,
2013-03-12 13:57:00,52.2,50.8,29.75,NNE,27,1.0,11.0,95,0.08,,---,0.23,VWS V13.01,2013-03-12 17:57:00,
2013-03-12 13:59:00,52.2,50.8,29.76,NNE,15,2.0,8.0,95,0.08,,---,0.23,VWS V13.01,2013-03-12 17:59:00,
2013-03-12 14:00:00,52.2,50.8,29.76,North,351,6.0,8.0,95,0.08,,---,0.23,VWS V13.01,2013-03-12 18:00:00,
2013-03-12 14:01:00,52.2,50.8,29.75,NNE,14,4.0,9.0,95,0.10,,---,0.25,VWS V13.01,2013-03-12 18:01:00,
2013-03-12 14:02:00,52.3,50.9,29.75,NW,314,6.0,10.0,95,0.10,,---,0.25,VWS V13.01,2013-03-12 18:02:00,
2013-03-12 14:03:00,52.3,50.9,29.75,North,353,3.0,6.0,95,0.10,,---,0.25,VWS V13.01,2013-03-12 18:03:00,
2013-03-12 14:04:00,52.3,51.2,29.75,NW,316,5.0,10.0,96,0.10,,---,0.25,VWS V13.01,2013-03-12 18:04:00,
2013-03-12 14:05:00,52.3,51.2,29.75,NNW,338,3.0,10.0,96,0.10,,---,0.25,VWS V13.01,2013-03-12 18:05:00,
2013-03-12 14:06:00,52.3,51.2,29.75,NW,320,6.0,10.0,96,0.11,,---,0.26,VWS V13.01,2013-03-12 18:06:00,
2013-03-12 14:07:00,52.3,50.9,29.75,NNW,328,5.0,14.0,95,0.11,,---,0.27,VWS V13.01,2013-03-12 18:07:00,
2013-03-12 14:08:00,52.4,51.0,29.75,NW,307,8.0,12.0,95,0.11,,---,0.27,VWS V13.01,2013-03-12 18:08:00,
2013-03-12 14:09:00,52.4,51.0,29.74,NW,320,5.0,10.0,95,0.11,,---,0.27,VWS V13.01,2013-03-12 18:09:00,
2013-03-12 14:10:00,52.3,50.9,29.74,ESE,118,3.0,10.0,95,0.11,,---,0.27,VWS V13.01,2013-03-12 18:10:00,
2013-03-12 14:11:00,52.4,51.0,29.74,NNW,345,2.0,5.0,95,0.11,,---,0.28,VWS V13.01,2013-03-12 18:11:00,
2013-03-12 14:12:00,52.3,50.9,29.74,NW,325,1.0,2.0,95,0.11,,---,0.28,VWS V13.01,2013-03-12 18:12:00,
2013-03-12 14:13:00,52.3,50.9,29.74,NNW,337,1.0,4.0,95,0.11,,---,0.28,VWS V13.01,2013-03-12 18:13:00,
2013-03-12 14:14:00,52.3,51.2,29.74,NW,310,6.0,6.0,96,0.12,,---,0.29,VWS V13.01,2013-03-12 18:14:00,
2013-03-12 14:15:00,52.3,51.2,29.74,NNW,344,3.0,3.0,96,0.11,,---,0.29,VWS V13.01,2013-03-12 18:15:00,
2013-03-12 14:16:00,52.3,50.9,29.74,NW,318,3.0,7.0,95,0.12,,---,0.29,VWS V13.01,2013-03-12 18:16:00,
2013-03-12 14:17:00,52.3,50.9,29.74,SW,223,3.0,6.0,95,0.12,,---,0.29,VWS V13.01,2013-03-12 18:17:00,
2013-03-12 14:18:00,52.2,50.8,29.74,WNW,303,3.0,5.0,95,0.12,,---,0.29,VWS V13.01,2013-03-12 18:18:00,
2013-03-12 14:19:00,52.2,50.8,29.74,NW,322,3.0,4.0,95,0.12,,---,0.30,VWS V13.01,2013-03-12 18:19:00,
2013-03-12 14:20:00,52.2,50.8,29.74,North,358,1.0,4.0,95,0.12,,---,0.30,VWS V13.01,2013-03-12 18:20:00,
2013-03-12 14:21:00,52.2,50.8,29.73,North,358,2.0,7.0,95,0.13,,---,0.31,VWS V13.01,2013-03-12 18:21:00,
2013-03-12 14:22:00,52.2,50.8,29.74,WNW,283,3.0,4.0,95,0.13,,---,0.31,VWS V13.01,2013-03-12 18:22:00,
2013-03-12 14:23:00,52.2,50.8,29.73,NNW,347,11.0,11.0,95,0.12,,---,0.31,VWS V13.01,2013-03-12 18:23:00,
2013-03-12 14:24:00,52.2,50.8,29.73,North,3,9.0,13.0,95,0.12,,---,0.31,VWS V13.01,2013-03-12 18:24:00,
2013-03-12 14:25:00,52.2,50.8,29.73,NNW,328,4.0,13.0,95,0.12,,---,0.31,VWS V13.01,2013-03-12 18:25:00,
2013-03-12 14:26:00,52.2,51.1,29.73,North,359,4.0,9.0,96,0.13,,---,0.32,VWS V13.01,2013-03-12 18:26:00,
2013-03-12 14:27:00,52.2,51.1,29.72,NE,39,11.0,11.0,96,0.14,,---,0.33,VWS V13.01,2013-03-12 18:27:00,
2013-03-12 14:28:00,52.2,51.1,29.73,SW,214,4.0,11.0,96,0.14,,---,0.33,VWS V13.01,2013-03-12 18:28:00,
2013-03-12 14:29:00,52.2,51.1,29.72,WNW,293,3.0,6.0,96,0.14,,---,0.33,VWS V13.01,2013-03-12 18:29:00,
2013-03-12 14:30:00,52.2,51.1,29.72,NNW,328,3.0,6.0,96,0.14,,---,0.33,VWS V13.01,2013-03-12 18:30:00,
2013-03-12 14:31:00,52.2,51.1,29.72,NW,312,2.0,5.0,96,0.14,,---,0.33,VWS V13.01,2013-03-12 18:31:00,
2013-03-12 14:32:00,52.2,51.1,29.72,NNW,334,2.0,5.0,96,0.14,,---,0.33,VWS V13.01,2013-03-12 18:32:00,
2013-03-12 14:33:00,52.2,51.1,29.72,NE,34,7.0,7.0,96,0.15,,---,0.34,VWS V13.01,2013-03-12 18:33:00,
2013-03-12 14:34:00,52.2,51.1,29.72,North,353,5.0,10.0,96,0.16,,---,0.35,VWS V13.01,2013-03-12 18:34:00,
2013-03-12 14:35:00,52.2,51.1,29.72,NW,320,6.0,10.0,96,0.15,,---,0.35,VWS V13.01,2013-03-12 18:35:00,
2013-03-12 14:36:00,52.2,51.1,29.71,NW,325,4.0,7.0,96,0.16,,---,0.35,VWS V13.01,2013-03-12 18:36:00,
2013-03-12 14:37:00,52.2,51.1,29.71,West,279,4.0,10.0,96,0.16,,---,0.35,VWS V13.01,2013-03-12 18:37:00,
2013-03-12 14:38:00,52.2,51.1,29.71,NNW,331,1.0,5.0,96,0.16,,---,0.35,VWS V13.01,2013-03-12 18:38:00,
2013-03-12 14:39:00,52.2,51.1,29.71,NE,49,3.0,12.0,96,0.15,,---,0.35,VWS V13.01,2013-03-12 18:39:00,
2013-03-12 14:40:00,52.2,51.1,29.71,NNW,330,6.0,12.0,96,0.16,,---,0.35,VWS V13.01,2013-03-12 18:40:00,
2013-03-12 14:41:00,52.1,51.0,29.71,NNW,343,10.0,12.0,96,0.16,,---,0.36,VWS V13.01,2013-03-12 18:41:00,
2013-03-12 14:42:00,52.2,51.1,29.71,WNW,293,5.0,10.0,96,0.16,,---,0.36,VWS V13.01,2013-03-12 18:42:00,
2013-03-12 14:43:00,52.2,51.1,29.70,West,273,7.0,10.0,96,0.16,,---,0.36,VWS V13.01,2013-03-12 18:43:00,
2013-03-12 14:44:00,52.2,51.1,29.70,NW,313,4.0,7.0,96,0.17,,---,0.37,VWS V13.01,2013-03-12 18:44:00,
2013-03-12 14:45:00,52.2,51.1,29.70,West,278,4.0,7.0,96,0.16,,---,0.36,VWS V13.01,2013-03-12 18:45:00,
2013-03-12 14:46:00,52.2,51.1,29.70,NNW,347,4.0,11.0,96,0.16,,---,0.37,VWS V13.01,2013-03-12 18:46:00,
2013-03-12 14:47:00,52.2,51.1,29.70,NW,308,4.0,10.0,96,0.16,,---,0.37,VWS V13.01,2013-03-12 18:47:00,
2013-03-12 14:48:00,52.2,51.1,29.70,WSW,250,4.0,7.0,96,0.16,,---,0.37,VWS V13.01,2013-03-12 18:48:00,
2013-03-12 14:49:00,52.2,51.1,29.71,NE,37,2.0,5.0,96,0.16,,---,0.37,VWS V13.01,2013-03-12 18:49:00,
2013-03-12 14:50:00,52.2,51.1,29.71,North,7,2.0,5.0,96,0.16,,---,0.37,VWS V13.01,2013-03-12 18:50:00,
2013-03-12 14:51:00,52.2,51.1,29.70,NNW,335,5.0,7.0,96,0.18,,---,0.39,VWS V13.01,2013-03-12 18:51:00,
2013-03-12 14:52:00,52.2,51.1,29.70,NNW,333,4.0,5.0,96,0.18,,---,0.39,VWS V13.01,2013-03-12 18:52:00,
2013-03-12 14:53:00,52.2,51.1,29.70,NNW,347,4.0,7.0,96,0.18,,---,0.39,VWS V13.01,2013-03-12 18:53:00,
2013-03-12 14:54:00,52.2,51.1,29.70,NE,40,6.0,11.0,96,0.17,,---,0.39,VWS V13.01,2013-03-12 18:54:00,
2013-03-12 14:55:00,52.2,51.1,29.70,NW,310,3.0,11.0,96,0.18,,---,0.39,VWS V13.01,2013-03-12 18:55:00,
2013-03-12 14:56:00,52.2,51.1,29.70,NW,309,2.0,8.0,96,0.19,,---,0.41,VWS V13.01,2013-03-12 18:56:00,
2013-03-12 14:57:00,52.2,51.1,29.70,WNW,292,4.0,4.0,96,0.18,,---,0.41,VWS V13.01,2013-03-12 18:57:00,
2013-03-12 14:58:00,52.2,51.1,29.70,WNW,297,1.0,5.0,96,0.19,,---,0.42,VWS V13.01,2013-03-12 18:58:00,
2013-03-12 14:59:00,52.2,51.1,29.70,WNW,285,3.0,5.0,96,0.20,,---,0.43,VWS V13.01,2013-03-12 18:59:00,
2013-03-12 15:00:00,52.2,51.1,29.70,West,277,3.0,3.0,96,0.19,,---,0.43,VWS V13.01,2013-03-12 19:00:00,
2013-03-12 15:01:00,52.3,51.2,29.69,NNW,348,1.0,4.0,96,0.21,,---,0.45,VWS V13.01,2013-03-12 19:01:00,
2013-03-12 15:02:00,52.3,51.2,29.69,WNW,300,4.0,21.0,96,0.20,,---,0.45,VWS V13.01,2013-03-12 19:02:00,
2013-03-12 15:03:00,52.3,51.2,29.69,West,260,5.0,13.0,96,0.20,,---,0.45,VWS V13.01,2013-03-12 19:03:00,
2013-03-12 15:04:00,52.3,51.2,29.69,NNW,335,1.0,13.0,96,0.20,,---,0.45,VWS V13.01,2013-03-12 19:04:00,
2013-03-12 15:05:00,52.3,51.2,29.69,West,278,6.0,13.0,96,0.20,,---,0.45,VWS V13.01,2013-03-12 19:05:00,
2013-03-12 15:06:00,52.3,51.2,29.68,NNW,334,3.0,7.0,96,0.21,,---,0.47,VWS V13.01,2013-03-12 19:06:00,
2013-03-12 15:07:00,52.3,51.2,29.68,NNW,347,3.0,12.0,96,0.21,,---,0.47,VWS V13.01,2013-03-12 19:07:00,
2013-03-12 15:08:00,52.3,51.2,29.68,WNW,301,7.0,8.0,96,0.21,,---,0.48,VWS V13.01,2013-03-12 19:08:00,
2013-03-12 15:09:00,52.2,51.1,29.68,West,273,5.0,10.0,96,0.22,,---,0.49,VWS V13.01,2013-03-12 19:09:00,
2013-03-12 15:10:00,52.2,51.1,29.68,NNW,328,6.0,10.0,96,0.21,,---,0.49,VWS V13.01,2013-03-12 19:10:00,
2013-03-12 15:11:00,52.2,51.1,29.68,North,351,9.0,13.0,96,0.22,,---,0.49,VWS V13.01,2013-03-12 19:11:00,
2013-03-12 15:12:00,52.1,51.0,29.68,NNE,12,3.0,11.0,96,0.21,,---,0.49,VWS V13.01,2013-03-12 19:12:00,
2013-03-12 15:13:00,52.2,51.1,29.68,NNW,339,3.0,14.0,96,0.22,,---,0.50,VWS V13.01,2013-03-12 19:13:00,
2013-03-12 15:14:00,52.2,51.1,29.68,WNW,296,3.0,12.0,96,0.23,,---,0.51,VWS V13.01,2013-03-12 19:14:00,
2013-03-12 15:15:00,52.2,51.1,29.68,NNE,19,6.0,12.0,96,0.22,,---,0.51,VWS V13.01,2013-03-12 19:15:00,
2013-03-12 15:16:00,52.3,51.2,29.68,SW,235,10.0,10.0,96,0.23,,---,0.52,VWS V13.01,2013-03-12 19:16:00,
2013-03-12 15:17:00,52.3,51.2,29.68,NE,38,4.0,11.0,96,0.24,,---,0.53,VWS V13.01,2013-03-12 19:17:00,
2013-03-12 15:18:00,52.3,51.2,29.68,NW,305,6.0,11.0,96,0.24,,---,0.53,VWS V13.01,2013-03-12 19:18:00,
2013-03-12 15:19:00,52.3,51.2,29.67,NW,317,3.0,9.0,96,0.24,,---,0.53,VWS V13.01,2013-03-12 19:19:00,
2013-03-12 15:20:00,52.3,51.2,29.67,SSE,164,3.0,9.0,96,0.24,,---,0.53,VWS V13.01,2013-03-12 19:20:00,
2013-03-12 15:21:00,52.2,51.1,29.67,NNW,347,4.0,17.0,96,0.24,,---,0.54,VWS V13.01,2013-03-12 19:21:00,
2013-03-12 15:22:00,52.2,51.1,29.67,NNW,341,12.0,12.0,96,0.24,,---,0.55,VWS V13.01,2013-03-12 19:22:00,
2013-03-12 15:23:00,52.2,51.1,29.67,NW,313,4.0,20.0,96,0.24,,---,0.55,VWS V13.01,2013-03-12 19:23:00,
2013-03-12 15:24:00,52.2,51.1,29.67,SSW,210,4.0,8.0,96,0.25,,---,0.56,VWS V13.01,2013-03-12 19:24:00,
2013-03-12 15:25:00,52.3,51.2,29.67,North,6,4.0,8.0,96,0.24,,---,0.56,VWS V13.01,2013-03-12 19:25:00,
2013-03-12 15:26:00,52.3,51.2,29.67,NW,314,6.0,11.0,96,0.26,,---,0.58,VWS V13.01,2013-03-12 19:26:00,
2013-03-12 15:27:00,52.3,51.2,29.67,WNW,290,7.0,10.0,96,0.27,,---,0.59,VWS V13.01,2013-03-12 19:27:00,
2013-03-12 15:28:00,52.3,51.2,29.67,NW,317,3.0,7.0,96,0.26,,---,0.59,VWS V13.01,2013-03-12 19:28:00,
2013-03-12 15:29:00,52.4,51.3,29.67,West,279,5.0,12.0,96,0.26,,---,0.59,VWS V13.01,2013-03-12 19:29:00,
2013-03-12 15:30:00,52.4,51.3,29.67,NNW,342,9.0,9.0,96,0.26,,---,0.59,VWS V13.01,2013-03-12 19:30:00,
2013-03-12 15:31:00,52.5,51.4,29.67,North,3,11.0,11.0,96,0.28,,---,0.61,VWS V13.01,2013-03-12 19:31:00,
2013-03-12 15:32:00,52.5,51.4,29.68,NW,318,4.0,12.0,96,0.28,,---,0.61,VWS V13.01,2013-03-12 19:32:00,
2013-03-12 15:33:00,52.6,51.5,29.67,WNW,283,10.0,10.0,96,0.28,,---,0.61,VWS V13.01,2013-03-12 19:33:00,
2013-03-12 15:34:00,52.6,51.5,29.67,NNW,335,5.0,10.0,96,0.28,,---,0.62,VWS V13.01,2013-03-12 19:34:00,
2013-03-12 15:35:00,52.6,51.5,29.67,NNE,23,6.0,10.0,96,0.28,,---,0.62,VWS V13.01,2013-03-12 19:35:00,
2013-03-12 15:36:00,52.7,51.6,29.67,WNW,297,3.0,4.0,96,0.28,,---,0.63,VWS V13.01,2013-03-12 19:36:00,
2013-03-12 15:37:00,52.7,51.6,29.67,NNW,347,6.0,12.0,96,0.29,,---,0.64,VWS V13.01,2013-03-12 19:37:00,
2013-03-12 15:38:00,52.8,51.7,29.67,NW,322,2.0,13.0,96,0.30,,---,0.65,VWS V13.01,2013-03-12 19:38:00,
2013-03-12 15:39:00,52.9,51.8,29.67,SW,214,0.0,6.0,96,0.30,,---,0.65,VWS V13.01,2013-03-12 19:39:00,
2013-03-12 15:40:00,52.9,51.8,29.67,WSW,250,1.0,6.0,96,0.30,,---,0.65,VWS V13.01,2013-03-12 19:40:00,
2013-03-12 15:41:00,53.1,52.0,29.68,North,357,3.0,3.0,96,0.30,,---,0.66,VWS V13.01,2013-03-12 19:41:00,
2013-03-12 15:42:00,53.1,52.0,29.68,NNE,15,6.0,7.0,96,0.31,,---,0.67,VWS V13.01,2013-03-12 19:42:00,
2013-03-12 15:43:00,53.2,52.1,29.68,NW,326,1.0,6.0,96,0.31,,---,0.67,VWS V13.01,2013-03-12 19:43:00,
2013-03-12 15:44:00,53.3,52.2,29.68,WNW,286,3.0,7.0,96,0.31,,---,0.67,VWS V13.01,2013-03-12 19:44:00,
2013-03-12 15:45:00,53.3,52.2,29.68,ENE,58,3.0,7.0,96,0.31,,---,0.67,VWS V13.01,2013-03-12 19:45:00,
2013-03-12 15:46:00,53.4,52.3,29.68,NE,52,3.0,6.0,96,0.31,,---,0.68,VWS V13.01,2013-03-12 19:46:00,
2013-03-12 15:47:00,53.4,52.3,29.68,WSW,241,4.0,9.0,96,0.32,,---,0.69,VWS V13.01,2013-03-12 19:47:00,
2013-03-12 15:48:00,53.5,52.4,29.68,WNW,302,1.0,6.0,96,0.32,,---,0.69,VWS V13.01,2013-03-12 19:48:00,
2013-03-12 15:49:00,53.5,52.4,29.68,WNW,295,10.0,13.0,96,0.32,,---,0.69,VWS V13.01,2013-03-12 19:49:00,
2013-03-12 15:50:00,53.5,52.4,29.68,West,270,10.0,13.0,96,0.32,,---,0.69,VWS V13.01,2013-03-12 19:50:00,
2013-03-12 15:51:00,53.6,52.5,29.68,NNW,344,5.0,9.0,96,0.32,,---,0.70,VWS V13.01,2013-03-12 19:51:00,
2013-03-12 15:52:00,53.6,52.5,29.68,SSE,156,5.0,11.0,96,0.31,,---,0.70,VWS V13.01,2013-03-12 19:52:00,
2013-03-12 15:53:00,53.6,52.5,29.68,ENE,58,7.0,11.0,96,0.31,,---,0.70,VWS V13.01,2013-03-12 19:53:00,
2013-03-12 15:54:00,53.6,52.5,29.68,SW,223,2.0,11.0,96,0.32,,---,0.71,VWS V13.01,2013-03-12 19:54:00,
2013-03-12 15:55:00,53.6,52.5,29.68,NW,322,5.0,11.0,96,0.31,,---,0.71,VWS V13.01,2013-03-12 19:55:00,
2013-03-12 15:56:00,53.7,52.9,29.68,NW,310,7.0,7.0,97,0.31,,---,0.71,VWS V13.01,2013-03-12 19:56:00,
2013-03-12 15:57:00,53.7,52.9,29.68,ENE,60,16.0,16.0,97,0.31,,---,0.72,VWS V13.01,2013-03-12 19:57:00,
2013-03-12 15:58:00,53.7,52.9,29.67,West,281,2.0,16.0,97,0.32,,---,0.73,VWS V13.01,2013-03-12 19:58:00,
2013-03-12 15:59:00,53.8,53.0,29.68,WSW,241,5.0,9.0,97,0.31,,---,0.73,VWS V13.01,2013-03-12 19:59:00,
2013-03-12 16:00:00,53.8,53.0,29.68,East,85,2.0,9.0,97,0.32,,---,0.73,VWS V13.01,2013-03-12 20:00:00,
2013-03-12 16:01:00,53.9,53.1,29.68,WNW,302,4.0,10.0,97,0.30,,---,0.74,VWS V13.01,2013-03-12 20:01:00,
2013-03-12 16:02:00,54.0,53.2,29.68,WNW,295,4.0,6.0,97,0.29,,---,0.74,VWS V13.01,2013-03-12 20:02:00,
2013-03-12 16:03:00,54.0,52.9,29.68,WSW,242,2.0,7.0,96,0.30,,---,0.75,VWS V13.01,2013-03-12 20:03:00,
2013-03-12 16:04:00,54.1,53.3,29.67,North,355,7.0,10.0,97,0.30,,---,0.75,VWS V13.01,2013-03-12 20:04:00,
2013-03-12 16:05:00,54.1,53.0,29.67,NW,320,3.0,10.0,96,0.30,,---,0.75,VWS V13.01,2013-03-12 20:05:00,
2013-03-12 16:06:00,54.2,53.4,29.68,WSW,245,4.0,6.0,97,0.29,,---,0.75,VWS V13.01,2013-03-12 20:06:00,
2013-03-12 16:07:00,54.3,53.5,29.68,NNW,328,1.0,7.0,97,0.28,,---,0.75,VWS V13.01,2013-03-12 20:07:00,
2013-03-12 16:08:00,54.4,53.6,29.68,North,5,9.0,9.0,97,0.29,,---,0.76,VWS V13.01,2013-03-12 20:08:00,
2013-03-12 16:09:00,54.4,53.6,29.68,SW,223,4.0,9.0,97,0.29,,---,0.77,VWS V13.01,2013-03-12 20:09:00,
2013-03-12 16:10:00,54.4,53.6,29.68,NW,312,2.0,9.0,97,0.29,,---,0.76,VWS V13.01,2013-03-12 20:10:00,
2013-03-12 16:11:00,54.5,53.7,29.68,NW,326,7.0,12.0,97,0.28,,---,0.77,VWS V13.01,2013-03-12 20:11:00,
2013-03-12 16:12:00,54.6,53.8,29.68,NNW,335,3.0,10.0,97,0.28,,---,0.77,VWS V13.01,2013-03-12 20:12:00,
2013-03-12 16:13:00,54.6,53.8,29.68,ENE,70,2.0,19.0,97,0.28,,---,0.77,VWS V13.01,2013-03-12 20:13:00,
2013-03-12 16:14:00,54.6,53.8,29.68,SSE,148,3.0,9.0,97,0.27,,---,0.77,VWS V13.01,2013-03-12 20:14:00,
2013-03-12 16:15:00,54.6,53.8,29.68,WNW,287,5.0,9.0,97,0.28,,---,0.77,VWS V13.01,2013-03-12 20:15:00,
2013-03-12 16:16:00,54.6,53.8,29.68,WNW,283,3.0,4.0,97,0.25,,---,0.77,VWS V13.01,2013-03-12 20:16:00,
2013-03-12 16:17:00,54.7,53.9,29.68,ENE,66,6.0,10.0,97,0.25,,---,0.77,VWS V13.01,2013-03-12 20:17:00,
2013-03-12 16:18:00,54.7,53.9,29.68,WSW,258,4.0,6.0,97,0.24,,---,0.77,VWS V13.01,2013-03-12 20:18:00,
2013-03-12 16:19:00,54.7,53.6,29.68,NW,306,10.0,10.0,96,0.24,,---,0.77,VWS V13.01,2013-03-12 20:19:00,
2013-03-12 16:20:00,54.7,53.6,29.68,NNW,328,5.0,6.0,96,0.24,,---,0.77,VWS V13.01,2013-03-12 20:20:00,
2013-03-12 16:21:00,54.7,53.6,29.68,East,79,1.0,2.0,96,0.24,,---,0.77,VWS V13.01,2013-03-12 20:21:00,
2013-03-12 16:22:00,54.7,53.6,29.68,NW,314,6.0,13.0,96,0.23,,---,0.77,VWS V13.01,2013-03-12 20:22:00,
2013-03-12 16:23:00,54.7,53.6,29.68,North,5,13.0,13.0,96,0.22,,---,0.77,VWS V13.01,2013-03-12 20:23:00,
2013-03-12 16:24:00,54.7,53.6,29.68,North,10,2.0,13.0,96,0.22,,---,0.77,VWS V13.01,2013-03-12 20:24:00,
2013-03-12 16:25:00,54.7,53.6,29.68,SW,230,3.0,13.0,96,0.22,,---,0.77,VWS V13.01,2013-03-12 20:25:00,
2013-03-12 16:33:00,54.8,53.7,29.68,NW,315,4.0,11.0,96,0.12,,---,0.73,VWS V13.01,2013-03-12 20:33:00,
2013-03-12 16:38:00,54.9,53.8,29.68,SSW,206,4.0,5.0,96,0.14,,---,0.77,VWS V13.01,2013-03-12 20:38:00,
2013-03-12 16:43:00,55.0,53.9,29.68,NNW,348,2.0,3.0,96,0.11,,---,0.77,VWS V13.01,2013-03-12 20:43:00,
2013-03-12 16:48:00,54.9,53.8,29.68,SSE,150,3.0,11.0,96,0.09,,---,0.77,VWS V13.01,2013-03-12 20:48:00,
2013-03-12 16:53:00,54.8,53.7,29.69,ENE,58,5.0,5.0,96,0.07,,---,0.77,VWS V13.01,2013-03-12 20:53:00,
2013-03-12 16:58:00,54.8,53.7,29.68,NW,325,4.0,4.0,96,0.06,,---,0.77,VWS V13.01,2013-03-12 20:58:00,
2013-03-12 17:03:00,54.9,53.8,29.69,ESE,114,3.0,3.0,96,0.03,,---,0.77,VWS V13.01,2013-03-12 21:03:00,
2013-03-12 17:08:00,54.8,53.7,29.69,North,360,1.0,6.0,96,0.02,,---,0.77,VWS V13.01,2013-03-12 21:08:00,
2013-03-12 17:13:00,54.8,53.7,29.69,North,353,2.0,3.0,96,0.00,,---,0.77,VWS V13.01,2013-03-12 21:13:00,
2013-03-12 17:18:00,54.8,53.7,29.69,East,91,1.0,4.0,96,0.00,,---,0.77,VWS V13.01,2013-03-12 21:18:00,
2013-03-12 17:23:00,54.8,53.7,29.69,ESE,120,3.0,3.0,96,0.00,,---,0.77,VWS V13.01,2013-03-12 21:23:00,
2013-03-12 17:28:00,54.7,53.6,29.69,NNW,334,2.0,3.0,96,0.00,,---,0.77,VWS V13.01,2013-03-12 21:28:00,
2013-03-12 17:33:00,54.7,53.6,29.70,East,87,0.0,2.0,96,0.04,,---,0.77,VWS V13.01,2013-03-12 21:33:00,
2013-03-12 17:38:00,54.8,53.7,29.70,ESE,110,4.0,4.0,96,0.00,,---,0.77,VWS V13.01,2013-03-12 21:38:00,
2013-03-12 17:43:00,54.7,53.6,29.70,SE,145,0.0,1.0,96,0.00,,---,0.77,VWS V13.01,2013-03-12 21:43:00,
2013-03-12 17:48:00,54.8,53.7,29.70,North,353,1.0,1.0,96,0.00,,---,0.77,VWS V13.01,2013-03-12 21:48:00,
2013-03-12 17:53:00,54.8,53.7,29.70,West,280,0.0,2.0,96,0.00,,---,0.77,VWS V13.01,2013-03-12 21:53:00,
2013-03-12 17:58:00,54.8,53.7,29.70,East,83,1.0,2.0,96,0.00,,---,0.77,VWS V13.01,2013-03-12 21:58:00,
2013-03-12 18:03:00,54.9,53.8,29.70,East,98,0.0,1.0,96,0.00,,---,0.77,VWS V13.01,2013-03-12 22:03:00,
2013-03-12 18:08:00,54.8,53.7,29.70,NNW,348,0.0,0.0,96,0.00,,---,0.77,VWS V13.01,2013-03-12 22:08:00,
2013-03-12 18:13:00,54.9,53.8,29.70,East,96,0.0,1.0,96,0.00,,---,0.77,VWS V13.01,2013-03-12 22:13:00,
2013-03-12 18:18:00,54.9,53.8,29.71,ESE,106,1.0,2.0,96,0.00,,---,0.77,VWS V13.01,2013-03-12 22:18:00,
2013-03-12 18:23:00,55.0,53.9,29.71,East,101,1.0,2.0,96,0.00,,---,0.77,VWS V13.01,2013-03-12 22:23:00,
2013-03-12 18:28:00,55.0,53.9,29.71,East,79,1.0,1.0,96,0.00,,---,0.77,VWS V13.01,2013-03-12 22:28:00,
2013-03-12 18:33:00,55.0,53.9,29.72,East,85,0.0,0.0,96,0.00,,---,0.77,VWS V13.01,2013-03-12 22:33:00,
2013-03-12 18:38:00,55.0,53.9,29.72,NNE,19,0.0,1.0,96,0.00,,---,0.77,VWS V13.01,2013-03-12 22:38:00,
2013-03-12 18:43:00,55.0,53.9,29.72,NNE,14,0.0,0.0,96,0.00,,---,0.77,VWS V13.01,2013-03-12 22:43:00,
2013-03-12 18:48:00,55.0,53.9,29.72,NNE,20,0.0,0.0,96,0.00,,---,0.77,VWS V13.01,2013-03-12 22:48:00,
2013-03-12 18:53:00,55.0,53.9,29.73,NNE,25,0.0,0.0,96,0.00,,---,0.77,VWS V13.01,2013-03-12 22:53:00,
2013-03-12 18:58:00,55.0,53.9,29.73,NNE,25,0.0,0.0,96,0.00,,---,0.77,VWS V13.01,2013-03-12 22:58:00,
2013-03-12 19:03:00,55.0,53.9,29.74,SE,130,3.0,4.0,96,0.00,,---,0.77,VWS V13.01,2013-03-12 23:03:00,
2013-03-12 19:08:00,55.0,53.9,29.74,ESE,118,0.0,3.0,96,0.00,,---,0.77,VWS V13.01,2013-03-12 23:08:00,
2013-03-12 19:13:00,54.8,53.7,29.74,SE,133,2.0,6.0,96,0.00,,---,0.77,VWS V13.01,2013-03-12 23:13:00,
2013-03-12 19:18:00,54.6,53.5,29.75,ESE,120,1.0,3.0,96,0.00,,---,0.77,VWS V13.01,2013-03-12 23:18:00,
2013-03-12 19:23:00,54.2,53.1,29.75,SE,137,0.0,4.0,96,0.01,,---,0.78,VWS V13.01,2013-03-12 23:23:00,
2013-03-12 19:28:00,53.8,52.4,29.75,SSW,212,2.0,3.0,95,0.01,,---,0.78,VWS V13.01,2013-03-12 23:28:00,
2013-03-12 19:33:00,53.3,51.6,29.75,NE,42,2.0,2.0,94,0.01,,---,0.78,VWS V13.01,2013-03-12 23:33:00,
2013-03-12 19:38:00,53.1,51.1,29.76,SE,142,2.0,2.0,93,0.01,,---,0.78,VWS V13.01,2013-03-12 23:38:00,
2013-03-12 19:43:00,52.9,50.9,29.76,NNW,343,1.0,2.0,93,0.01,,---,0.78,VWS V13.01,2013-03-12 23:43:00,
2013-03-12 19:48:00,52.7,50.7,29.76,East,81,2.0,2.0,93,0.01,,---,0.78,VWS V13.01,2013-03-12 23:48:00,
2013-03-12 19:53:00,52.6,50.3,29.76,SE,137,1.0,2.0,92,0.01,,---,0.78,VWS V13.01,2013-03-12 23:53:00,
2013-03-12 19:59:00,52.5,50.2,29.76,East,99,2.0,2.0,92,0.01,,---,0.78,VWS V13.01,2013-03-12 23:59:00,
2013-03-12 20:04:00,52.4,50.2,29.77,SSE,159,0.0,2.0,92,0.01,,---,0.78,VWS V13.01,2013-03-13 00:04:00,
2013-03-12 20:09:00,52.4,50.2,29.77,ESE,122,1.0,1.0,92,0.01,,---,0.78,VWS V13.01,2013-03-13 00:09:00,
2013-03-12 20:14:00,52.3,50.0,29.76,ESE,114,0.0,3.0,92,0.01,,---,0.78,VWS V13.01,2013-03-13 00:14:00,
2013-03-12 20:19:00,52.2,49.7,29.77,SSE,162,1.0,3.0,91,0.01,,---,0.78,VWS V13.01,2013-03-13 00:19:00,
2013-03-12 20:24:00,52.1,49.6,29.77,ESE,106,2.0,5.0,91,0.01,,---,0.78,VWS V13.01,2013-03-13 00:24:00,
2013-03-12 20:29:00,51.8,48.7,29.77,East,89,0.0,2.0,89,0.00,,---,0.78,VWS V13.01,2013-03-13 00:29:00,
2013-03-12 20:34:00,51.7,48.3,29.77,ESE,109,1.0,1.0,88,0.00,,---,0.78,VWS V13.01,2013-03-13 00:34:00,
2013-03-12 20:39:00,51.6,48.2,29.77,ESE,120,0.0,1.0,88,0.00,,---,0.78,VWS V13.01,2013-03-13 00:39:00,
2013-03-12 20:44:00,51.5,48.4,29.77,East,79,0.0,0.0,89,0.00,,---,0.78,VWS V13.01,2013-03-13 00:44:00,
2013-03-12 20:49:00,51.4,48.3,29.77,ESE,118,1.0,2.0,89,0.00,,---,0.78,VWS V13.01,2013-03-13 00:49:00,
2013-03-12 20:54:00,51.3,48.2,29.77,SE,135,3.0,3.0,89,0.00,,---,0.78,VWS V13.01,2013-03-13 00:54:00,
2013-03-12 20:59:00,51.1,47.7,29.78,East,99,5.0,5.0,88,0.00,,---,0.78,VWS V13.01,2013-03-13 00:59:00,
2013-03-12 21:04:00,50.9,47.2,29.78,SE,141,3.0,3.0,87,0.00,,---,0.78,VWS V13.01,2013-03-13 01:04:00,
2013-03-12 21:09:00,50.7,46.7,29.78,East,95,1.0,5.0,86,0.00,,---,0.78,VWS V13.01,2013-03-13 01:09:00,
2013-03-12 21:14:00,50.5,46.2,29.78,North,8,1.0,1.0,85,0.00,,---,0.78,VWS V13.01,2013-03-13 01:14:00,
2013-03-12 21:19:00,50.4,45.8,29.78,ESE,108,6.0,6.0,84,0.00,,---,0.78,VWS V13.01,2013-03-13 01:19:00,
2013-03-12 21:24:00,50.4,45.4,29.78,SE,134,5.0,6.0,83,0.00,,---,0.78,VWS V13.01,2013-03-13 01:24:00,
2013-03-12 21:29:00,50.4,45.8,29.77,ESE,122,3.0,5.0,84,0.00,,---,0.78,VWS V13.01,2013-03-13 01:29:00,
2013-03-12 21:34:00,50.3,45.7,29.76,ESE,106,2.0,3.0,84,0.00,,---,0.78,VWS V13.01,2013-03-13 01:34:00,
2013-03-12 21:39:00,50.2,45.6,29.76,ESE,102,2.0,6.0,84,0.00,,---,0.78,VWS V13.01,2013-03-13 01:39:00,
2013-03-12 21:44:00,50.1,45.5,29.77,SSE,159,2.0,6.0,84,0.00,,---,0.78,VWS V13.01,2013-03-13 01:44:00,
2013-03-12 21:49:00,50.0,45.4,29.78,ESE,119,3.0,3.0,84,0.00,,---,0.78,VWS V13.01,2013-03-13 01:49:00,
2013-03-12 21:54:00,49.8,45.2,29.78,NE,37,0.0,2.0,84,0.00,,---,0.78,VWS V13.01,2013-03-13 01:54:00,
2013-03-12 21:59:00,49.7,45.1,29.78,NE,54,2.0,5.0,84,0.00,,---,0.78,VWS V13.01,2013-03-13 01:59:00,
2013-03-12 22:04:00,49.5,44.9,29.79,ENE,60,1.0,3.0,84,0.00,,---,0.78,VWS V13.01,2013-03-13 02:04:00,
2013-03-12 22:09:00,49.3,44.7,29.79,NE,35,0.0,3.0,84,0.00,,---,0.78,VWS V13.01,2013-03-13 02:09:00,
2013-03-12 22:14:00,49.1,44.5,29.80,ENE,60,3.0,5.0,84,0.00,,---,0.78,VWS V13.01,2013-03-13 02:14:00,
2013-03-12 22:19:00,48.8,44.2,29.80,ENE,58,1.0,1.0,84,0.00,,---,0.78,VWS V13.01,2013-03-13 02:19:00,
2013-03-12 22:24:00,48.6,44.0,29.80,ENE,62,3.0,3.0,84,0.00,,---,0.78,VWS V13.01,2013-03-13 02:24:00,
2013-03-12 22:29:00,48.4,43.8,29.80,NE,49,2.0,3.0,84,0.00,,---,0.78,VWS V13.01,2013-03-13 02:29:00,
2013-03-12 22:34:00,48.2,43.6,29.80,NE,47,0.0,1.0,84,0.00,,---,0.78,VWS V13.01,2013-03-13 02:34:00,
2013-03-12 22:39:00,48.0,43.4,29.80,NE,50,1.0,3.0,84,0.00,,---,0.78,VWS V13.01,2013-03-13 02:39:00,
2013-03-12 22:44:00,47.8,43.2,29.80,ENE,73,2.0,3.0,84,0.00,,---,0.78,VWS V13.01,2013-03-13 02:44:00,
2013-03-12 22:49:00,47.6,43.3,29.81,ENE,68,1.0,1.0,85,0.00,,---,0.78,VWS V13.01,2013-03-13 02:49:00,
2013-03-12 22:54:00,47.4,43.1,29.81,NE,56,0.0,0.0,85,0.00,,---,0.78,VWS V13.01,2013-03-13 02:54:00,
2013-03-12 22:59:00,47.2,42.9,29.81,NE,49,3.0,3.0,85,0.00,,---,0.78,VWS V13.01,2013-03-13 02:59:00,
2013-03-12 23:04:00,47.0,42.7,29.81,NNE,21,0.0,1.0,85,0.00,,---,0.78,VWS V13.01,2013-03-13 03:04:00,
2013-03-12 23:09:00,46.9,42.6,29.81,NE,52,0.0,0.0,85,0.00,,---,0.78,VWS V13.01,2013-03-13 03:09:00,
2013-03-12 23:14:00,46.7,42.7,29.81,NE,41,2.0,4.0,86,0.00,,---,0.78,VWS V13.01,2013-03-13 03:14:00,
2013-03-12 23:19:00,46.5,42.5,29.82,NE,39,0.0,1.0,86,0.00,,---,0.78,VWS V13.01,2013-03-13 03:19:00,
2013-03-12 23:24:00,46.5,42.5,29.81,NE,39,0.0,0.0,86,0.00,,---,0.78,VWS V13.01,2013-03-13 03:24:00,
2013-03-12 23:29:00,46.5,42.5,29.82,ENE,57,3.0,3.0,86,0.00,,---,0.78,VWS V13.01,2013-03-13 03:29:00,
2013-03-12 23:34:00,46.5,42.5,29.82,ENE,74,1.0,1.0,86,0.00,,---,0.78,VWS V13.01,2013-03-13 03:34:00,
2013-03-12 23:39:00,46.5,42.5,29.82,NE,44,0.0,1.0,86,0.00,,---,0.78,VWS V13.01,2013-03-13 03:39:00,
2013-03-12 23:44:00,46.5,42.5,29.82,ENE,68,0.0,1.0,86,0.00,,---,0.78,VWS V13.01,2013-03-13 03:44:00,
2013-03-12 23:49:00,46.5,42.5,29.82,NE,41,1.0,1.0,86,0.00,,---,0.78,VWS V13.01,2013-03-13 03:49:00,
2013-03-12 23:54:00,46.5,42.5,29.82,NE,44,3.0,3.0,86,0.00,,---,0.78,VWS V13.01,2013-03-13 03:54:00,
2013-03-12 23:59:00,46.5,42.5,29.82,NE,50,0.0,1.0,86,0.00,,---,0.78,VWS V13.01,2013-03-13 03:59:00,